| time (UTC) | temp F | wind direction | speed MPH | gust MPH | rain 1hr in | rain 24hr in | rain mn in | humidity % | barometer mb |
| 20260906031631 | 54 | 123 | 1.0 | 2.0 | 0.00 | 0.00 | 0.00 | 90 | 1021.2 |
| 20260906031531 | 54 | 209 | 0.0 | 2.0 | 0.00 | 0.00 | 0.00 | 90 | 1021.0 |
| 20260906031504 | 55 | 199 | 0.0 | 1.0 | 0.00 | 0.00 | 0.00 | 91 | 1021.1 |
| 20260906031457 | 55 | 198 | 0.0 | 1.0 | 0.00 | 0.00 | 0.00 | 91 | 1021.2 |
| 20260906031450 | 54 | 186 | 0.0 | 2.0 | 0.00 | 0.00 | 0.00 | 90 | 1021.1 |
| 20260906031435 | 54 | 199 | 0.0 | 2.0 | 0.00 | 0.00 | 0.00 | 90 | 1021.0 |
| 20260906031419 | 55 | 199 | 0.0 | 2.0 | 0.00 | 0.00 | 0.00 | 90 | 1021.0 |
| 20260906031405 | 55 | 202 | 0.0 | 2.0 | 0.00 | 0.00 | 0.00 | 91 | 1021.0 |
| 20260906031356 | 55 | 211 | 0.0 | 2.0 | 0.00 | 0.00 | 0.00 | 90 | 1021.1 |
| 20260906031340 | 55 | 199 | 0.0 | 2.0 | 0.00 | 0.00 | 0.00 | 90 | 1021.1 |
| 20260906031103 | 55 | 198 | 0.0 | 2.0 | 0.00 | 0.00 | 0.00 | 90 | 1021.0 |
| 20260906030828 | 55 | 230 | 1.0 | 2.0 | 0.00 | 0.00 | 0.00 | 91 | 1021.0 |
| 20260906030819 | 55 | 198 | 0.0 | 2.0 | 0.00 | 0.00 | 0.00 | 91 | 1020.9 |
| 20260906030803 | 55 | 193 | 0.0 | 2.0 | 0.00 | 0.00 | 0.00 | 91 | 1020.8 |
| 20260906030747 | 55 | 196 | 0.0 | 1.0 | 0.00 | 0.00 | 0.00 | 91 | 1021.1 |
| 20260906030730 | 55 | 196 | 0.0 | 1.0 | 0.00 | 0.00 | 0.00 | 91 | 1021.0 |
| 20260906030714 | 55 | 199 | 0.0 | 1.0 | 0.00 | 0.00 | 0.00 | 91 | 1021.1 |
| 20260906030435 | 55 | 196 | 0.0 | 1.0 | 0.00 | 0.00 | 0.00 | 91 | 1021.1 |
| 20260906030419 | 55 | 203 | 0.0 | 1.0 | 0.00 | 0.00 | 0.00 | 91 | 1021.0 |
| 20260906025923 | 55 | 199 | 0.0 | 1.0 | 0.00 | 0.00 | 0.00 | 91 | 1021.2 |
| 20260906025652 | 54 | 198 | 0.0 | 1.0 | 0.00 | 0.00 | 0.00 | 91 | 1020.9 |
| 20260906025645 | 55 | 201 | 0.0 | 1.0 | 0.00 | 0.00 | 0.00 | 91 | 1021.1 |
| 20260906025629 | 55 | 203 | 0.0 | 1.0 | 0.00 | 0.00 | 0.00 | 91 | 1020.8 |
| 20260906025614 | 55 | 196 | 0.0 | 1.0 | 0.00 | 0.00 | 0.00 | 91 | 1021.0 |
| 20260906025558 | 55 | 204 | 0.0 | 1.0 | 0.00 | 0.00 | 0.00 | 91 | 1021.0 |
| 20260906025529 | 54 | 200 | 0.0 | 1.0 | 0.00 | 0.00 | 0.00 | 91 | 1021.1 |
| 20260906025259 | 54 | 202 | 0.0 | 1.0 | 0.00 | 0.00 | 0.00 | 91 | 1020.9 |
| 20260906025243 | 54 | 208 | 0.0 | 1.0 | 0.00 | 0.00 | 0.00 | 91 | 1020.8 |
| 20260906025228 | 54 | 193 | 0.0 | 1.0 | 0.00 | 0.00 | 0.00 | 91 | 1020.8 |
| 20260906024740 | 54 | 199 | 0.0 | 1.0 | 0.00 | 0.00 | 0.00 | 91 | 1021.0 |
| 20260906024500 | 55 | 201 | 0.0 | 1.0 | 0.00 | 0.00 | 0.00 | 91 | 1020.9 |
| 20260906024452 | 54 | 201 | 0.0 | 1.0 | 0.00 | 0.00 | 0.00 | 91 | 1020.9 |
| 20260906024435 | 54 | 196 | 0.0 | 1.0 | 0.00 | 0.00 | 0.00 | 91 | 1021.0 |
| 20260906024420 | 55 | 193 | 0.0 | 1.0 | 0.00 | 0.00 | 0.00 | 91 | 1020.9 |
| 20260906024119 | 55 | 211 | 0.0 | 1.0 | 0.00 | 0.00 | 0.00 | 91 | 1020.8 |
| 20260906024019 | 55 | 192 | 0.0 | 0.0 | 0.00 | 0.00 | 0.00 | 91 | 1020.6 |
| 20260906023920 | 55 | 191 | 0.0 | 0.0 | 0.00 | 0.00 | 0.00 | 91 | 1020.9 |
| 20260906023819 | 55 | 199 | 0.0 | 0.0 | 0.00 | 0.00 | 0.00 | 91 | 1020.8 |
| 20260906023720 | 55 | 197 | 0.0 | 0.0 | 0.00 | 0.00 | 0.00 | 90 | 1021.0 |
| 20260906023704 | 55 | 191 | 0.0 | 0.0 | 0.00 | 0.00 | 0.00 | 90 | 1021.0 |
| 20260906023620 | 55 | 193 | 0.0 | 1.0 | 0.00 | 0.00 | 0.00 | 90 | 1020.7 |
| 20260906023508 | 55 | 195 | 0.0 | 1.0 | 0.00 | 0.00 | 0.00 | 90 | 1020.8 |
| 20260906023407 | 55 | 196 | 0.0 | 1.0 | 0.00 | 0.00 | 0.00 | 90 | 1021.0 |
| 20260906023307 | 55 | 193 | 0.0 | 1.0 | 0.00 | 0.00 | 0.00 | 90 | 1020.7 |
| 20260906023208 | 55 | 198 | 0.0 | 1.0 | 0.00 | 0.00 | 0.00 | 90 | 1021.0 |
| 20260906023108 | 55 | 199 | 0.0 | 1.0 | 0.00 | 0.00 | 0.00 | 90 | 1020.7 |
| 20260906023007 | 55 | 196 | 0.0 | 1.0 | 0.00 | 0.00 | 0.00 | 90 | 1020.8 |
| 20260906022907 | 55 | 197 | 0.0 | 1.0 | 0.00 | 0.00 | 0.00 | 90 | 1020.7 |
| 20260906022808 | 55 | 196 | 0.0 | 1.0 | 0.00 | 0.00 | 0.00 | 90 | 1020.7 |
| 20260906022744 | 55 | 201 | 0.0 | 1.0 | 0.00 | 0.00 | 0.00 | 90 | 1020.8 |
| 20260906022727 | 55 | 201 | 0.0 | 1.0 | 0.00 | 0.00 | 0.00 | 90 | 1020.6 |
| 20260906022711 | 55 | 191 | 0.0 | 1.0 | 0.00 | 0.00 | 0.00 | 90 | 1020.6 |
| 20260906022434 | 55 | 195 | 0.0 | 1.0 | 0.00 | 0.00 | 0.00 | 90 | 1020.7 |
| 20260906022207 | 55 | 189 | 0.0 | 1.0 | 0.00 | 0.00 | 0.00 | 90 | 1020.8 |
| 20260906022106 | 55 | 194 | 0.0 | 1.0 | 0.00 | 0.00 | 0.00 | 90 | 1020.7 |
| 20260906022007 | 55 | 192 | 0.0 | 1.0 | 0.00 | 0.00 | 0.00 | 90 | 1020.8 |
| 20260906021906 | 55 | 184 | 0.0 | 1.0 | 0.00 | 0.00 | 0.00 | 90 | 1020.8 |
| 20260906021807 | 55 | 192 | 0.0 | 1.0 | 0.00 | 0.00 | 0.00 | 90 | 1020.6 |
| 20260906021707 | 55 | 195 | 0.0 | 1.0 | 0.00 | 0.00 | 0.00 | 90 | 1020.9 |
| 20260906021648 | 55 | 194 | 0.0 | 2.0 | 0.00 | 0.00 | 0.00 | 90 | 1020.7 |
| 20260906021640 | 55 | 194 | 0.0 | 2.0 | 0.00 | 0.00 | 0.00 | 90 | 1020.9 |
| 20260906021625 | 55 | 192 | 0.0 | 2.0 | 0.00 | 0.00 | 0.00 | 90 | 1020.8 |
| 20260906021609 | 55 | 200 | 0.0 | 2.0 | 0.00 | 0.00 | 0.00 | 90 | 1020.8 |
| 20260906021553 | 55 | 196 | 0.0 | 2.0 | 0.00 | 0.00 | 0.00 | 90 | 1020.6 |
| 20260906021536 | 55 | 194 | 0.0 | 2.0 | 0.00 | 0.00 | 0.00 | 90 | 1020.7 |
| 20260906021308 | 55 | 190 | 0.0 | 2.0 | 0.00 | 0.00 | 0.00 | 90 | 1020.7 |
| 20260906021044 | 55 | 195 | 0.0 | 2.0 | 0.00 | 0.00 | 0.00 | 90 | 1020.5 |
| 20260906021028 | 55 | 196 | 0.0 | 2.0 | 0.00 | 0.00 | 0.00 | 90 | 1020.6 |
| 20260906021013 | 55 | 151 | 0.0 | 2.0 | 0.00 | 0.00 | 0.00 | 90 | 1020.7 |
| 20260906020948 | 55 | 221 | 1.0 | 2.0 | 0.00 | 0.00 | 0.00 | 90 | 1020.6 |
| 20260906020712 | 55 | 213 | 1.0 | 2.0 | 0.00 | 0.00 | 0.00 | 90 | 1020.6 |
| 20260906020448 | 55 | 192 | 0.0 | 2.0 | 0.00 | 0.00 | 0.00 | 90 | 1020.6 |
| 20260906020433 | 55 | 192 | 0.0 | 2.0 | 0.00 | 0.00 | 0.00 | 90 | 1020.7 |
| 20260906020416 | 55 | 192 | 0.0 | 2.0 | 0.00 | 0.00 | 0.00 | 90 | 1020.9 |
| 20260906020108 | 55 | 223 | 1.0 | 2.0 | 0.00 | 0.00 | 0.00 | 90 | 1020.6 |
| 20260906020007 | 55 | 205 | 0.0 | 1.0 | 0.00 | 0.00 | 0.00 | 90 | 1020.6 |
| 20260906015907 | 55 | 195 | 0.0 | 2.0 | 0.00 | 0.00 | 0.00 | 90 | 1020.5 |
| 20260906015807 | 55 | 199 | 0.0 | 2.0 | 0.00 | 0.00 | 0.00 | 90 | 1020.5 |
| 20260906015708 | 55 | 186 | 0.0 | 2.0 | 0.00 | 0.00 | 0.00 | 90 | 1020.7 |
| 20260906015607 | 55 | 210 | 0.0 | 2.0 | 0.00 | 0.00 | 0.00 | 91 | 1020.4 |
| 20260906015507 | 55 | 191 | 0.0 | 2.0 | 0.00 | 0.00 | 0.00 | 91 | 1020.5 |
| 20260906015407 | 55 | 184 | 0.0 | 2.0 | 0.00 | 0.00 | 0.00 | 91 | 1020.4 |
| 20260906015354 | 55 | 187 | 0.0 | 3.0 | 0.00 | 0.00 | 0.00 | 91 | 1020.7 |
| 20260906015348 | 55 | 180 | 0.0 | 3.0 | 0.00 | 0.00 | 0.00 | 92 | 1020.4 |
| 20260906015340 | 55 | 196 | 0.0 | 2.0 | 0.00 | 0.00 | 0.00 | 91 | 1020.4 |
| 20260906015317 | 55 | 198 | 0.0 | 2.0 | 0.00 | 0.00 | 0.00 | 91 | 1020.5 |
| 20260906015305 | 55 | 164 | 0.0 | 2.0 | 0.00 | 0.00 | 0.00 | 91 | 1020.5 |
| 20260906015026 | 55 | 205 | 1.0 | 2.0 | 0.00 | 0.00 | 0.00 | 91 | 1020.6 |
| 20260906015010 | 55 | 195 | 0.0 | 3.0 | 0.00 | 0.00 | 0.00 | 91 | 1020.4 |
| 20260906014951 | 55 | 187 | 0.0 | 3.0 | 0.00 | 0.00 | 0.00 | 91 | 1020.7 |
| 20260906014725 | 55 | 190 | 0.0 | 3.0 | 0.00 | 0.00 | 0.00 | 91 | 1020.4 |
| 20260906014708 | 55 | 49 | 1.0 | 3.0 | 0.00 | 0.00 | 0.00 | 91 | 1020.6 |
| 20260906014433 | 55 | 189 | 0.0 | 3.0 | 0.00 | 0.00 | 0.00 | 92 | 1020.6 |
| 20260906014416 | 55 | 180 | 0.0 | 3.0 | 0.00 | 0.00 | 0.00 | 92 | 1020.4 |
| 20260906014144 | 55 | 173 | 1.0 | 3.0 | 0.00 | 0.00 | 0.00 | 92 | 1020.4 |
| 20260906014128 | 55 | 207 | 0.0 | 3.0 | 0.00 | 0.00 | 0.00 | 92 | 1020.5 |
| 20260906013809 | 55 | 202 | 0.0 | 2.0 | 0.00 | 0.00 | 0.00 | 92 | 1020.6 |
| 20260906013707 | 55 | 173 | 0.0 | 2.0 | 0.00 | 0.00 | 0.00 | 92 | 1020.6 |
| 20260906013608 | 55 | 196 | 0.0 | 2.0 | 0.00 | 0.00 | 0.00 | 92 | 1020.4 |
| 20260906013507 | 55 | 188 | 0.0 | 2.0 | 0.00 | 0.00 | 0.00 | 92 | 1020.4 |
| 20260906013442 | 55 | 162 | 0.0 | 2.0 | 0.00 | 0.00 | 0.00 | 92 | 1020.6 |
| 20260906013426 | 55 | 191 | 1.0 | 2.0 | 0.00 | 0.00 | 0.00 | 92 | 1020.4 |
| 20260906013404 | 55 | 196 | 0.0 | 1.0 | 0.00 | 0.00 | 0.00 | 92 | 1020.5 |
| 20260906013349 | 55 | 191 | 0.0 | 1.0 | 0.00 | 0.00 | 0.00 | 92 | 1020.6 |
| 20260906013113 | 55 | 182 | 0.0 | 2.0 | 0.00 | 0.00 | 0.00 | 92 | 1020.3 |
| 20260906013057 | 55 | 186 | 0.0 | 2.0 | 0.00 | 0.00 | 0.00 | 92 | 1020.5 |
| 20260906012828 | 55 | 191 | 0.0 | 2.0 | 0.00 | 0.00 | 0.00 | 92 | 1020.3 |
| 20260906012507 | 55 | 199 | 0.0 | 2.0 | 0.00 | 0.00 | 0.00 | 93 | 1020.2 |
| 20260906012407 | 55 | 184 | 1.0 | 2.0 | 0.00 | 0.00 | 0.00 | 93 | 1020.4 |
| 20260906012356 | 56 | 200 | 0.0 | 1.0 | 0.00 | 0.00 | 0.00 | 93 | 1020.2 |
| 20260906012345 | 55 | 196 | 0.0 | 2.0 | 0.00 | 0.00 | 0.00 | 93 | 1020.4 |
| 20260906012323 | 55 | 211 | 1.0 | 2.0 | 0.00 | 0.00 | 0.00 | 93 | 1020.4 |
| 20260906012307 | 55 | 199 | 0.0 | 2.0 | 0.00 | 0.00 | 0.00 | 93 | 1020.4 |
| 20260906012032 | 55 | 199 | 1.0 | 2.0 | 0.00 | 0.00 | 0.00 | 93 | 1020.4 |
| 20260906011808 | 55 | 192 | 0.0 | 1.0 | 0.00 | 0.00 | 0.00 | 93 | 1020.1 |
| 20260906011744 | 55 | 190 | 0.0 | 1.0 | 0.00 | 0.00 | 0.00 | 93 | 1020.5 |
| 20260906011728 | 55 | 192 | 1.0 | 1.0 | 0.00 | 0.00 | 0.00 | 93 | 1020.3 |
| 20260906011451 | 56 | 191 | 0.0 | 1.0 | 0.00 | 0.00 | 0.00 | 93 | 1020.3 |
| 20260906011434 | 56 | 196 | 0.0 | 1.0 | 0.00 | 0.00 | 0.00 | 93 | 1020.1 |
| 20260906011416 | 56 | 200 | 0.0 | 1.0 | 0.00 | 0.00 | 0.00 | 93 | 1020.2 |
| 20260906011107 | 56 | 193 | 0.0 | 1.0 | 0.00 | 0.00 | 0.00 | 93 | 1020.3 |
| 20260906011042 | 56 | 198 | 0.0 | 1.0 | 0.00 | 0.00 | 0.00 | 93 | 1020.2 |
| 20260906011026 | 56 | 205 | 1.0 | 1.0 | 0.00 | 0.00 | 0.00 | 93 | 1020.4 |
| 20260906011011 | 56 | 203 | 0.0 | 1.0 | 0.00 | 0.00 | 0.00 | 93 | 1020.4 |
| 20260906010946 | 56 | 199 | 0.0 | 1.0 | 0.00 | 0.00 | 0.00 | 93 | 1020.3 |
| 20260906010930 | 56 | 196 | 0.0 | 1.0 | 0.00 | 0.00 | 0.00 | 93 | 1020.3 |
| 20260906010914 | 56 | 196 | 0.0 | 1.0 | 0.00 | 0.00 | 0.00 | 93 | 1020.3 |
| 20260906010207 | 56 | 195 | 0.0 | 1.0 | 0.00 | 0.00 | 0.00 | 93 | 1020.3 |
| 20260906010108 | 56 | 194 | 0.0 | 1.0 | 0.00 | 0.00 | 0.00 | 93 | 1020.2 |
| 20260906010007 | 56 | 204 | 0.0 | 1.0 | 0.00 | 0.00 | 0.00 | 93 | 1020.4 |
| 20260906005907 | 56 | 198 | 0.0 | 1.0 | 0.00 | 0.00 | 0.00 | 93 | 1020.4 |
| 20260906005806 | 56 | 191 | 0.0 | 1.0 | 0.00 | 0.00 | 0.00 | 93 | 1020.4 |
| 20260906005707 | 56 | 199 | 0.0 | 1.0 | 0.00 | 0.00 | 0.00 | 93 | 1020.3 |
| 20260906005608 | 56 | 205 | 0.0 | 1.0 | 0.00 | 0.00 | 0.00 | 93 | 1020.2 |
| 20260906005507 | 56 | 199 | 0.0 | 1.0 | 0.00 | 0.00 | 0.00 | 93 | 1020.5 |
| 20260906005408 | 56 | 195 | 0.0 | 1.0 | 0.00 | 0.00 | 0.00 | 93 | 1020.3 |
| 20260906005307 | 56 | 205 | 0.0 | 1.0 | 0.00 | 0.00 | 0.00 | 93 | 1020.2 |
| 20260906005206 | 56 | 194 | 0.0 | 1.0 | 0.00 | 0.00 | 0.00 | 93 | 1020.5 |
| 20260906005108 | 56 | 193 | 0.0 | 1.0 | 0.00 | 0.00 | 0.00 | 93 | 1020.2 |
| 20260906005007 | 56 | 192 | 0.0 | 1.0 | 0.00 | 0.00 | 0.00 | 93 | 1020.4 |
| 20260906004907 | 56 | 198 | 0.0 | 1.0 | 0.00 | 0.00 | 0.00 | 93 | 1020.3 |
| 20260906004807 | 56 | 196 | 0.0 | 1.0 | 0.00 | 0.00 | 0.00 | 93 | 1020.2 |
| 20260906004706 | 56 | 192 | 0.0 | 1.0 | 0.00 | 0.00 | 0.00 | 93 | 1020.4 |
| 20260906004228 | 56 | 198 | 0.0 | 1.0 | 0.00 | 0.00 | 0.00 | 93 | 1020.6 |
| 20260906004156 | 56 | 196 | 0.0 | 1.0 | 0.00 | 0.00 | 0.00 | 93 | 1020.2 |
| 20260906003903 | 56 | 199 | 0.0 | 1.0 | 0.00 | 0.00 | 0.00 | 93 | 1020.2 |
| 20260906003811 | 56 | 196 | 0.0 | 1.0 | 0.00 | 0.00 | 0.00 | 93 | 1020.4 |
| 20260906003804 | 56 | 197 | 0.0 | 1.0 | 0.00 | 0.00 | 0.00 | 93 | 1020.1 |
| 20260906003747 | 56 | 201 | 0.0 | 1.0 | 0.00 | 0.00 | 0.00 | 93 | 1020.1 |
| 20260906003740 | 56 | 203 | 0.0 | 1.0 | 0.00 | 0.00 | 0.00 | 93 | 1020.1 |
| 20260906003725 | 56 | 197 | 0.0 | 1.0 | 0.00 | 0.00 | 0.00 | 93 | 1020.2 |
| 20260906003448 | 56 | 198 | 0.0 | 1.0 | 0.00 | 0.00 | 0.00 | 93 | 1020.2 |
| 20260906003432 | 56 | 204 | 0.0 | 1.0 | 0.00 | 0.00 | 0.00 | 93 | 1020.4 |
| 20260906003204 | 56 | 194 | 0.0 | 1.0 | 0.00 | 0.00 | 0.00 | 93 | 1020.5 |
| 20260906003103 | 56 | 201 | 0.0 | 1.0 | 0.00 | 0.00 | 0.00 | 93 | 1020.2 |
| 20260906003040 | 56 | 205 | 0.0 | 1.0 | 0.00 | 0.00 | 0.00 | 93 | 1020.0 |
| 20260906003024 | 56 | 201 | 0.0 | 1.0 | 0.00 | 0.00 | 0.00 | 93 | 1020.2 |
| 20260906002711 | 56 | 186 | 0.0 | 1.0 | 0.00 | 0.00 | 0.00 | 93 | 1020.2 |
| 20260906002704 | 56 | 186 | 0.0 | 1.0 | 0.00 | 0.00 | 0.00 | 93 | 1020.4 |
| 20260906002603 | 56 | 189 | 0.0 | 1.0 | 0.00 | 0.00 | 0.00 | 93 | 1020.1 |
| 20260906002504 | 56 | 199 | 0.0 | 1.0 | 0.00 | 0.00 | 0.00 | 93 | 1020.1 |
| 20260906002445 | 56 | 194 | 0.0 | 1.0 | 0.00 | 0.00 | 0.00 | 94 | 1020.1 |
| 20260906002429 | 56 | 193 | 0.0 | 1.0 | 0.00 | 0.00 | 0.00 | 94 | 1020.2 |
| 20260906002413 | 56 | 194 | 0.0 | 1.0 | 0.00 | 0.00 | 0.00 | 94 | 1020.2 |
| 20260906002103 | 56 | 199 | 0.0 | 1.0 | 0.00 | 0.00 | 0.00 | 94 | 1020.3 |
| 20260906002003 | 56 | 199 | 0.0 | 1.0 | 0.00 | 0.00 | 0.00 | 94 | 1020.0 |
| 20260906001903 | 56 | 199 | 0.0 | 1.0 | 0.00 | 0.00 | 0.00 | 94 | 1020.1 |
| 20260906001803 | 56 | 190 | 0.0 | 1.0 | 0.00 | 0.00 | 0.00 | 94 | 1020.2 |
| 20260906001724 | 56 | 188 | 0.0 | 1.0 | 0.00 | 0.00 | 0.00 | 94 | 1020.2 |
| 20260906001702 | 56 | 188 | 0.0 | 1.0 | 0.00 | 0.00 | 0.00 | 94 | 1020.3 |
| 20260906001603 | 56 | 200 | 0.0 | 2.0 | 0.00 | 0.00 | 0.00 | 94 | 1020.4 |
| 20260906001504 | 56 | 203 | 0.0 | 2.0 | 0.00 | 0.00 | 0.00 | 94 | 1020.4 |
| 20260906001403 | 56 | 194 | 0.0 | 2.0 | 0.00 | 0.00 | 0.00 | 94 | 1020.1 |
| 20260906001345 | 56 | 200 | 0.0 | 2.0 | 0.00 | 0.00 | 0.00 | 94 | 1020.0 |
| 20260906001330 | 56 | 198 | 0.0 | 2.0 | 0.00 | 0.00 | 0.00 | 94 | 1020.0 |
| 20260906001323 | 56 | 198 | 0.0 | 2.0 | 0.00 | 0.00 | 0.00 | 94 | 1019.9 |
| 20260906001006 | 56 | 192 | 0.0 | 2.0 | 0.00 | 0.00 | 0.00 | 94 | 1020.0 |
| 20260906000951 | 56 | 192 | 0.0 | 2.0 | 0.00 | 0.00 | 0.00 | 94 | 1020.0 |
| 20260906000935 | 56 | 192 | 0.0 | 2.0 | 0.00 | 0.00 | 0.00 | 94 | 1019.8 |
| 20260906000918 | 56 | 245 | 1.0 | 2.0 | 0.00 | 0.00 | 0.00 | 94 | 1019.8 |
| 20260906000858 | 56 | 245 | 1.0 | 2.0 | 0.00 | 0.00 | 0.00 | 94 | 1019.9 |
| 20260906000623 | 56 | 190 | 0.0 | 2.0 | 0.00 | 0.00 | 0.00 | 94 | 1020.2 |
| 20260906000303 | 56 | 199 | 0.0 | 2.0 | 0.00 | 0.00 | 0.00 | 94 | 1020.0 |
| 20260906000212 | 56 | 197 | 0.0 | 1.0 | 0.00 | 0.00 | 0.00 | 94 | 1020.0 |
| 20260906000204 | 56 | 195 | 0.0 | 1.0 | 0.00 | 0.00 | 0.00 | 94 | 1020.0 |
| 20260906000104 | 56 | 204 | 0.0 | 1.0 | 0.00 | 0.00 | 0.00 | 94 | 1020.2 |
| 20260906000004 | 56 | 192 | 0.0 | 1.0 | 0.00 | 0.00 | 0.00 | 94 | 1020.0 |
| 20260905235903 | 56 | 198 | 0.0 | 1.0 | 0.00 | 0.00 | 0.00 | 94 | 1019.9 |
| 20260905235805 | 56 | 205 | 0.0 | 1.0 | 0.00 | 0.00 | 0.00 | 94 | 1020.2 |
| 20260905235747 | 56 | 194 | 0.0 | 1.0 | 0.00 | 0.00 | 0.00 | 95 | 1020.2 |
| 20260905235741 | 56 | 194 | 0.0 | 1.0 | 0.00 | 0.00 | 0.00 | 95 | 1020.1 |
| 20260905235724 | 56 | 191 | 0.0 | 1.0 | 0.00 | 0.00 | 0.00 | 95 | 1020.1 |
| 20260905235404 | 56 | 199 | 0.0 | 1.0 | 0.00 | 0.00 | 0.00 | 95 | 1020.1 |
| 20260905235322 | 56 | 196 | 0.0 | 1.0 | 0.00 | 0.00 | 0.00 | 95 | 1020.2 |
| 20260905235316 | 56 | 199 | 0.0 | 1.0 | 0.00 | 0.00 | 0.00 | 95 | 1020.0 |
| 20260905235259 | 56 | 192 | 0.0 | 1.0 | 0.00 | 0.00 | 0.00 | 95 | 1020.2 |
| 20260905235023 | 56 | 199 | 0.0 | 1.0 | 0.00 | 0.00 | 0.00 | 95 | 1020.1 |
| 20260905234711 | 56 | 187 | 0.0 | 1.0 | 0.00 | 0.00 | 0.00 | 95 | 1020.1 |
| 20260905234703 | 56 | 187 | 0.0 | 1.0 | 0.00 | 0.00 | 0.00 | 95 | 1020.0 |
| 20260905234603 | 56 | 208 | 0.0 | 1.0 | 0.00 | 0.00 | 0.00 | 95 | 1020.2 |
| 20260905234550 | 56 | 196 | 0.0 | 1.0 | 0.00 | 0.00 | 0.00 | 96 | 1020.1 |
| 20260905234541 | 56 | 191 | 0.0 | 1.0 | 0.00 | 0.00 | 0.00 | 95 | 1020.1 |
| 20260905234525 | 56 | 201 | 0.0 | 1.0 | 0.00 | 0.00 | 0.00 | 95 | 1020.1 |
| 20260905234510 | 56 | 199 | 0.0 | 1.0 | 0.00 | 0.00 | 0.00 | 95 | 1020.2 |
| 20260905234453 | 56 | 194 | 0.0 | 1.0 | 0.00 | 0.00 | 0.00 | 95 | 1020.2 |
| 20260905234227 | 56 | 199 | 0.0 | 1.0 | 0.00 | 0.00 | 0.00 | 95 | 1020.1 |
| 20260905233951 | 56 | 198 | 0.0 | 1.0 | 0.00 | 0.00 | 0.00 | 95 | 1019.9 |
| 20260905233935 | 56 | 193 | 0.0 | 1.0 | 0.00 | 0.00 | 0.00 | 96 | 1020.1 |
| 20260905233703 | 56 | 192 | 1.0 | 1.0 | 0.00 | 0.00 | 0.00 | 96 | 1020.0 |
| 20260905233603 | 56 | 193 | 0.0 | 1.0 | 0.00 | 0.00 | 0.00 | 96 | 1019.9 |
| 20260905233510 | 56 | 189 | 0.0 | 1.0 | 0.00 | 0.00 | 0.00 | 96 | 1020.2 |
| 20260905233504 | 56 | 203 | 0.0 | 1.0 | 0.00 | 0.00 | 0.00 | 96 | 1020.0 |
| 20260905233449 | 56 | 200 | 0.0 | 1.0 | 0.00 | 0.00 | 0.00 | 96 | 1020.0 |
| 20260905233432 | 56 | 190 | 0.0 | 1.0 | 0.00 | 0.00 | 0.00 | 96 | 1020.2 |
| 20260905233205 | 56 | 187 | 0.0 | 1.0 | 0.00 | 0.00 | 0.00 | 96 | 1020.1 |
| 20260905233104 | 56 | 196 | 0.0 | 1.0 | 0.00 | 0.00 | 0.00 | 96 | 1019.9 |
| 20260905233003 | 56 | 195 | 0.0 | 1.0 | 0.00 | 0.00 | 0.00 | 96 | 1019.9 |
| 20260905232903 | 56 | 184 | 0.0 | 2.0 | 0.00 | 0.00 | 0.00 | 96 | 1020.0 |
| 20260905232803 | 56 | 200 | 0.0 | 2.0 | 0.00 | 0.00 | 0.00 | 96 | 1020.1 |
| 20260905232711 | 56 | 191 | 0.0 | 2.0 | 0.00 | 0.00 | 0.00 | 96 | 1020.1 |
| 20260905232703 | 56 | 191 | 0.0 | 2.0 | 0.00 | 0.00 | 0.00 | 96 | 1020.1 |
| 20260905232604 | 56 | 186 | 0.0 | 2.0 | 0.00 | 0.00 | 0.00 | 96 | 1020.0 |
| 20260905232503 | 56 | 193 | 0.0 | 2.0 | 0.00 | 0.00 | 0.00 | 96 | 1020.0 |
| 20260905232403 | 56 | 191 | 0.0 | 2.0 | 0.00 | 0.00 | 0.00 | 96 | 1020.0 |
| 20260905232305 | 56 | 184 | 1.0 | 2.0 | 0.00 | 0.00 | 0.00 | 97 | 1019.9 |
| 20260905232211 | 56 | 199 | 0.0 | 2.0 | 0.00 | 0.00 | 0.00 | 96 | 1019.9 |
| 20260905232204 | 56 | 198 | 0.0 | 2.0 | 0.00 | 0.00 | 0.00 | 96 | 1020.0 |
| 20260905232103 | 55 | 205 | 0.0 | 2.0 | 0.00 | 0.00 | 0.00 | 97 | 1019.9 |
| 20260905232003 | 55 | 192 | 0.0 | 2.0 | 0.00 | 0.00 | 0.00 | 97 | 1020.0 |
| 20260905231904 | 55 | 196 | 0.0 | 2.0 | 0.00 | 0.00 | 0.00 | 97 | 1019.9 |
| 20260905231804 | 55 | 172 | 0.0 | 2.0 | 0.00 | 0.00 | 0.00 | 97 | 1019.9 |
| 20260905231746 | 55 | 178 | 1.0 | 2.0 | 0.00 | 0.00 | 0.00 | 97 | 1020.1 |
| 20260905231739 | 55 | 142 | 0.0 | 2.0 | 0.00 | 0.00 | 0.00 | 97 | 1020.1 |
| 20260905231723 | 55 | 199 | 1.0 | 2.0 | 0.00 | 0.00 | 0.00 | 97 | 1020.0 |
| 20260905231404 | 55 | 185 | 0.0 | 2.0 | 0.00 | 0.00 | 0.00 | 97 | 1020.0 |
| 20260905231325 | 55 | 192 | 0.0 | 1.0 | 0.00 | 0.00 | 0.00 | 97 | 1019.8 |
| 20260905231319 | 55 | 174 | 0.0 | 2.0 | 0.00 | 0.00 | 0.00 | 97 | 1019.8 |
| 20260905231303 | 55 | 196 | 0.0 | 2.0 | 0.00 | 0.00 | 0.00 | 97 | 1019.8 |
| 20260905231256 | 55 | 195 | 0.0 | 2.0 | 0.00 | 0.00 | 0.00 | 97 | 1019.9 |
| 20260905231240 | 55 | 192 | 0.0 | 2.0 | 0.00 | 0.00 | 0.00 | 97 | 1020.0 |
| 20260905231017 | 55 | 192 | 0.0 | 1.0 | 0.00 | 0.00 | 0.00 | 97 | 1019.7 |
| 20260905231013 | 56 | 188 | 0.0 | 2.0 | 0.00 | 0.00 | 0.00 | 97 | 1019.9 |
| 20260905231006 | 55 | 175 | 1.0 | 2.0 | 0.00 | 0.00 | 0.00 | 97 | 1019.8 |
| 20260905230955 | 56 | 195 | 0.0 | 2.0 | 0.00 | 0.00 | 0.00 | 97 | 1019.9 |
| 20260905230948 | 55 | 199 | 0.0 | 1.0 | 0.00 | 0.00 | 0.00 | 97 | 1019.8 |
| 20260905230932 | 55 | 196 | 0.0 | 1.0 | 0.00 | 0.00 | 0.00 | 97 | 1020.1 |
| 20260905230914 | 55 | 200 | 0.0 | 1.0 | 0.00 | 0.00 | 0.00 | 97 | 1020.1 |
| 20260905230908 | 55 | 200 | 0.0 | 1.0 | 0.00 | 0.00 | 0.00 | 97 | 1020.0 |
| 20260905230853 | 55 | 198 | 0.0 | 1.0 | 0.00 | 0.00 | 0.00 | 97 | 1020.0 |
| 20260905230836 | 55 | 200 | 0.0 | 1.0 | 0.00 | 0.00 | 0.00 | 97 | 1020.0 |
| 20260905230601 | 55 | 200 | 0.0 | 1.0 | 0.00 | 0.00 | 0.00 | 97 | 1019.8 |
| 20260905230333 | 55 | 195 | 0.0 | 1.0 | 0.00 | 0.00 | 0.00 | 97 | 1019.8 |
| 20260905230317 | 56 | 190 | 0.0 | 1.0 | 0.00 | 0.00 | 0.00 | 97 | 1019.9 |
| 20260905230301 | 55 | 207 | 0.0 | 1.0 | 0.00 | 0.00 | 0.00 | 97 | 1019.6 |
| 20260905230245 | 55 | 193 | 0.0 | 1.0 | 0.00 | 0.00 | 0.00 | 97 | 1019.6 |
| 20260905230230 | 55 | 200 | 0.0 | 1.0 | 0.00 | 0.00 | 0.00 | 97 | 1019.9 |
| 20260905230001 | 55 | 186 | 0.0 | 1.0 | 0.00 | 0.00 | 0.00 | 97 | 1019.7 |
| 20260905225725 | 55 | 195 | 0.0 | 2.0 | 0.00 | 0.00 | 0.00 | 97 | 1020.0 |
| 20260905225449 | 56 | 177 | 1.0 | 2.0 | 0.00 | 0.00 | 0.00 | 97 | 1019.9 |
| 20260905225222 | 56 | 183 | 0.0 | 2.0 | 0.00 | 0.00 | 0.00 | 97 | 1019.8 |
| 20260905225207 | 56 | 200 | 0.0 | 2.0 | 0.00 | 0.00 | 0.00 | 97 | 1019.8 |
| 20260905225151 | 56 | 186 | 0.0 | 2.0 | 0.00 | 0.00 | 0.00 | 97 | 1019.8 |
| 20260905225135 | 56 | 197 | 0.0 | 2.0 | 0.00 | 0.00 | 0.00 | 97 | 1019.8 |
| 20260905225118 | 56 | 199 | 0.0 | 2.0 | 0.00 | 0.00 | 0.00 | 97 | 1019.8 |
| 20260905225100 | 56 | 200 | 0.0 | 2.0 | 0.00 | 0.00 | 0.00 | 97 | 1019.8 |
| 20260905225053 | 56 | 200 | 0.0 | 2.0 | 0.00 | 0.00 | 0.00 | 97 | 1019.8 |
| 20260905225037 | 56 | 200 | 0.0 | 1.0 | 0.00 | 0.00 | 0.00 | 97 | 1019.6 |
| 20260905224801 | 56 | 202 | 0.0 | 2.0 | 0.00 | 0.00 | 0.00 | 97 | 1019.9 |
| 20260905224746 | 56 | 199 | 0.0 | 2.0 | 0.00 | 0.00 | 0.00 | 97 | 1019.9 |
| 20260905224519 | 56 | 194 | 0.0 | 2.0 | 0.00 | 0.00 | 0.00 | 97 | 1019.9 |
| 20260905224243 | 56 | 194 | 0.0 | 2.0 | 0.00 | 0.00 | 0.00 | 97 | 1019.5 |
| 20260905223747 | 56 | 190 | 0.0 | 1.0 | 0.00 | 0.00 | 0.00 | 97 | 1019.8 |
| 20260905223741 | 56 | 199 | 0.0 | 1.0 | 0.00 | 0.00 | 0.00 | 97 | 1019.9 |
| 20260905223731 | 56 | 198 | 0.0 | 2.0 | 0.00 | 0.00 | 0.00 | 97 | 1019.7 |
| 20260905223724 | 56 | 204 | 0.0 | 2.0 | 0.00 | 0.00 | 0.00 | 97 | 1019.7 |
| 20260905223708 | 56 | 199 | 0.0 | 2.0 | 0.00 | 0.00 | 0.00 | 97 | 1020.1 |
| 20260905223652 | 56 | 197 | 0.0 | 2.0 | 0.00 | 0.00 | 0.00 | 97 | 1020.1 |
| 20260905223635 | 56 | 199 | 0.0 | 2.0 | 0.00 | 0.00 | 0.00 | 97 | 1019.8 |
| 20260905223359 | 56 | 186 | 0.0 | 2.0 | 0.00 | 0.00 | 0.00 | 97 | 1020.0 |
| 20260905223352 | 56 | 196 | 0.0 | 2.0 | 0.00 | 0.00 | 0.00 | 97 | 1020.0 |
| 20260905223337 | 56 | 203 | 0.0 | 2.0 | 0.00 | 0.00 | 0.00 | 97 | 1020.0 |
| 20260905223320 | 56 | 206 | 0.0 | 1.0 | 0.00 | 0.00 | 0.00 | 97 | 1019.8 |
| 20260905223304 | 56 | 196 | 0.0 | 1.0 | 0.00 | 0.00 | 0.00 | 97 | 1019.7 |
| 20260905223248 | 56 | 206 | 0.0 | 1.0 | 0.00 | 0.00 | 0.00 | 97 | 1019.8 |
| 20260905223019 | 56 | 185 | 0.0 | 1.0 | 0.00 | 0.00 | 0.00 | 97 | 1019.7 |
| 20260905223004 | 56 | 194 | 0.0 | 1.0 | 0.00 | 0.00 | 0.00 | 97 | 1019.7 |
| 20260905222947 | 56 | 196 | 0.0 | 1.0 | 0.00 | 0.00 | 0.00 | 97 | 1019.8 |
| 20260905222710 | 56 | 198 | 0.0 | 1.0 | 0.00 | 0.00 | 0.00 | 97 | 1019.9 |
| 20260905222223 | 56 | 196 | 0.0 | 1.0 | 0.00 | 0.00 | 0.00 | 97 | 1019.8 |
| 20260905221902 | 56 | 194 | 0.0 | 1.0 | 0.00 | 0.00 | 0.00 | 97 | 1020.0 |
| 20260905221802 | 56 | 194 | 0.0 | 1.0 | 0.00 | 0.00 | 0.00 | 97 | 1019.8 |
| 20260905221710 | 56 | 193 | 0.0 | 1.0 | 0.00 | 0.00 | 0.00 | 97 | 1019.8 |
| 20260905221702 | 56 | 196 | 0.0 | 1.0 | 0.00 | 0.00 | 0.00 | 97 | 1019.8 |
| 20260905221602 | 56 | 196 | 0.0 | 1.0 | 0.00 | 0.00 | 0.00 | 97 | 1020.0 |
| 20260905221503 | 56 | 200 | 0.0 | 1.0 | 0.00 | 0.00 | 0.00 | 97 | 1019.6 |
| 20260905221403 | 56 | 198 | 0.0 | 1.0 | 0.00 | 0.00 | 0.00 | 97 | 1019.8 |
| 20260905221329 | 56 | 199 | 0.0 | 1.0 | 0.00 | 0.00 | 0.00 | 97 | 1020.0 |
| 20260905221322 | 56 | 199 | 0.0 | 1.0 | 0.00 | 0.00 | 0.00 | 97 | 1019.7 |
| 20260905221038 | 56 | 199 | 0.0 | 1.0 | 0.00 | 0.00 | 0.00 | 97 | 1019.8 |
| 20260905221023 | 56 | 203 | 0.0 | 1.0 | 0.00 | 0.00 | 0.00 | 97 | 1019.7 |
| 20260905220710 | 56 | 196 | 0.0 | 1.0 | 0.00 | 0.00 | 0.00 | 97 | 1019.9 |
| 20260905220702 | 56 | 196 | 0.0 | 1.0 | 0.00 | 0.00 | 0.00 | 97 | 1019.8 |
| 20260905220601 | 56 | 192 | 0.0 | 1.0 | 0.00 | 0.00 | 0.00 | 96 | 1019.8 |
| 20260905220503 | 56 | 199 | 0.0 | 1.0 | 0.00 | 0.00 | 0.00 | 96 | 1019.9 |
| 20260905220402 | 56 | 196 | 0.0 | 1.0 | 0.00 | 0.00 | 0.00 | 96 | 1019.9 |
| 20260905220335 | 56 | 196 | 0.0 | 0.0 | 0.00 | 0.00 | 0.00 | 96 | 1019.9 |
| 20260905220319 | 56 | 199 | 0.0 | 0.0 | 0.00 | 0.00 | 0.00 | 96 | 1019.6 |
| 20260905220312 | 56 | 199 | 0.0 | 1.0 | 0.00 | 0.00 | 0.00 | 96 | 1019.8 |
| 20260905220258 | 56 | 202 | 0.0 | 1.0 | 0.00 | 0.00 | 0.00 | 96 | 1019.7 |
| 20260905220242 | 56 | 200 | 0.0 | 1.0 | 0.00 | 0.00 | 0.00 | 96 | 1019.9 |
| 20260905215709 | 56 | 200 | 0.0 | 1.0 | 0.00 | 0.00 | 0.00 | 96 | 1019.7 |
| 20260905215702 | 56 | 200 | 0.0 | 1.0 | 0.00 | 0.00 | 0.00 | 96 | 1019.9 |
| 20260905215602 | 56 | 196 | 0.0 | 1.0 | 0.00 | 0.00 | 0.00 | 96 | 1019.8 |
| 20260905215502 | 56 | 196 | 0.0 | 1.0 | 0.00 | 0.00 | 0.00 | 96 | 1019.8 |
| 20260905215402 | 56 | 196 | 0.0 | 1.0 | 0.00 | 0.00 | 0.00 | 96 | 1019.8 |
| 20260905215344 | 56 | 191 | 0.0 | 1.0 | 0.00 | 0.00 | 0.00 | 96 | 1019.8 |
| 20260905215328 | 56 | 207 | 0.0 | 1.0 | 0.00 | 0.00 | 0.00 | 96 | 1019.8 |
| 20260905215322 | 56 | 199 | 0.0 | 1.0 | 0.00 | 0.00 | 0.00 | 96 | 1019.8 |
| 20260905215039 | 56 | 198 | 0.0 | 1.0 | 0.00 | 0.00 | 0.00 | 96 | 1019.8 |
| 20260905215024 | 56 | 187 | 0.0 | 1.0 | 0.00 | 0.00 | 0.00 | 96 | 1020.1 |
| 20260905214710 | 56 | 211 | 1.0 | 1.0 | 0.00 | 0.00 | 0.00 | 96 | 1019.9 |
| 20260905214702 | 56 | 199 | 0.0 | 1.0 | 0.00 | 0.00 | 0.00 | 96 | 1019.9 |
| 20260905214602 | 56 | 197 | 0.0 | 1.0 | 0.00 | 0.00 | 0.00 | 96 | 1019.9 |
| 20260905214550 | 56 | 199 | 0.0 | 1.0 | 0.00 | 0.00 | 0.00 | 96 | 1019.8 |
| 20260905214546 | 56 | 199 | 0.0 | 1.0 | 0.00 | 0.00 | 0.00 | 95 | 1019.7 |
| 20260905214538 | 56 | 197 | 0.0 | 1.0 | 0.00 | 0.00 | 0.00 | 96 | 1019.8 |
| 20260905214521 | 56 | 198 | 0.0 | 1.0 | 0.00 | 0.00 | 0.00 | 96 | 1019.9 |
| 20260905214505 | 56 | 199 | 0.0 | 1.0 | 0.00 | 0.00 | 0.00 | 96 | 1019.8 |
| 20260905214239 | 56 | 192 | 0.0 | 1.0 | 0.00 | 0.00 | 0.00 | 96 | 1020.0 |
| 20260905214223 | 56 | 207 | 0.0 | 1.0 | 0.00 | 0.00 | 0.00 | 96 | 1019.7 |
| 20260905213947 | 56 | 194 | 0.0 | 1.0 | 0.00 | 0.00 | 0.00 | 96 | 1019.9 |
| 20260905213932 | 56 | 190 | 0.0 | 1.0 | 0.00 | 0.00 | 0.00 | 95 | 1019.9 |
| 20260905213702 | 56 | 199 | 0.0 | 1.0 | 0.00 | 0.00 | 0.00 | 95 | 1019.6 |
| 20260905213640 | 56 | 196 | 0.0 | 1.0 | 0.00 | 0.00 | 0.00 | 95 | 1019.7 |
| 20260905213623 | 56 | 196 | 0.0 | 1.0 | 0.00 | 0.00 | 0.00 | 95 | 1019.8 |
| 20260905213302 | 56 | 200 | 0.0 | 1.0 | 0.00 | 0.00 | 0.00 | 95 | 1019.8 |
| 20260905213210 | 56 | 200 | 0.0 | 1.0 | 0.00 | 0.00 | 0.00 | 95 | 1019.8 |
| 20260905213202 | 56 | 197 | 0.0 | 1.0 | 0.00 | 0.00 | 0.00 | 95 | 1019.7 |
| 20260905213102 | 56 | 178 | 0.0 | 1.0 | 0.00 | 0.00 | 0.00 | 95 | 1019.7 |
| 20260905213002 | 56 | 196 | 0.0 | 1.0 | 0.00 | 0.00 | 0.00 | 95 | 1019.7 |
| 20260905212901 | 56 | 198 | 0.0 | 1.0 | 0.00 | 0.00 | 0.00 | 95 | 1019.6 |
| 20260905212802 | 56 | 196 | 0.0 | 1.0 | 0.00 | 0.00 | 0.00 | 95 | 1019.6 |
| 20260905212710 | 56 | 202 | 0.0 | 1.0 | 0.00 | 0.00 | 0.00 | 95 | 1019.6 |
| 20260905212702 | 56 | 204 | 0.0 | 1.0 | 0.00 | 0.00 | 0.00 | 95 | 1019.8 |
| 20260905212636 | 56 | 196 | 0.0 | 0.0 | 0.00 | 0.00 | 0.00 | 95 | 1019.8 |
| 20260905212621 | 56 | 199 | 0.0 | 0.0 | 0.00 | 0.00 | 0.00 | 95 | 1019.8 |
| 20260905212319 | 56 | 199 | 0.0 | 0.0 | 0.00 | 0.00 | 0.00 | 95 | 1019.6 |
| 20260905212312 | 56 | 199 | 0.0 | 0.0 | 0.00 | 0.00 | 0.00 | 95 | 1019.7 |
| 20260905212257 | 56 | 196 | 0.0 | 0.0 | 0.00 | 0.00 | 0.00 | 94 | 1019.9 |
| 20260905212021 | 56 | 196 | 0.0 | 0.0 | 0.00 | 0.00 | 0.00 | 94 | 1019.6 |
| 20260905212005 | 56 | 198 | 0.0 | 0.0 | 0.00 | 0.00 | 0.00 | 94 | 1019.6 |
| 20260905211947 | 56 | 199 | 0.0 | 0.0 | 0.00 | 0.00 | 0.00 | 94 | 1019.7 |
| 20260905211721 | 56 | 198 | 0.0 | 0.0 | 0.00 | 0.00 | 0.00 | 94 | 1019.7 |
| 20260905211705 | 56 | 188 | 0.0 | 0.0 | 0.00 | 0.00 | 0.00 | 94 | 1019.5 |
| 20260905211649 | 56 | 201 | 0.0 | 0.0 | 0.00 | 0.00 | 0.00 | 94 | 1019.3 |
| 20260905211413 | 56 | 196 | 0.0 | 2.0 | 0.00 | 0.00 | 0.00 | 94 | 1019.6 |
| 20260905211102 | 56 | 198 | 0.0 | 2.0 | 0.00 | 0.00 | 0.00 | 94 | 1019.6 |
| 20260905211001 | 56 | 196 | 0.0 | 2.0 | 0.00 | 0.00 | 0.00 | 94 | 1019.7 |
| 20260905210902 | 56 | 195 | 0.0 | 2.0 | 0.00 | 0.00 | 0.00 | 93 | 1019.7 |
| 20260905210840 | 56 | 196 | 0.0 | 2.0 | 0.00 | 0.00 | 0.00 | 93 | 1019.6 |
| 20260905210821 | 56 | 200 | 0.0 | 2.0 | 0.00 | 0.00 | 0.00 | 93 | 1019.6 |
| 20260905210815 | 56 | 196 | 0.0 | 2.0 | 0.00 | 0.00 | 0.00 | 93 | 1019.4 |
| 20260905210759 | 56 | 195 | 0.0 | 2.0 | 0.00 | 0.00 | 0.00 | 93 | 1019.4 |
| 20260905210744 | 56 | 196 | 0.0 | 2.0 | 0.00 | 0.00 | 0.00 | 93 | 1019.6 |
| 20260905210727 | 56 | 198 | 0.0 | 2.0 | 0.00 | 0.00 | 0.00 | 93 | 1019.6 |
| 20260905210450 | 56 | 201 | 0.0 | 2.0 | 0.00 | 0.00 | 0.00 | 92 | 1019.6 |
| 20260905210224 | 57 | 209 | 0.0 | 2.0 | 0.00 | 0.00 | 0.00 | 92 | 1019.8 |
| 20260905210208 | 57 | 192 | 0.0 | 2.0 | 0.00 | 0.00 | 0.00 | 92 | 1019.7 |
| 20260905210152 | 57 | 203 | 0.0 | 2.0 | 0.00 | 0.00 | 0.00 | 92 | 1019.8 |
| 20260905205914 | 57 | 137 | 0.0 | 2.0 | 0.00 | 0.00 | 0.00 | 92 | 1019.7 |
| 20260905205639 | 60 | 222 | 1.0 | 6.0 | 0.00 | 0.00 | 0.00 | 81 | 1019.9 |
| 20260905205634 | 58 | 211 | 2.0 | 4.0 | 0.00 | 0.00 | 0.00 | 87 | 1019.9 |
| 20260905205626 | 57 | 187 | 0.0 | 3.0 | 0.00 | 0.00 | 0.00 | 91 | 1019.9 |
| 20260905205610 | 57 | 211 | 1.0 | 3.0 | 0.00 | 0.00 | 0.00 | 91 | 1019.7 |
| 20260905205554 | 57 | 172 | 0.0 | 3.0 | 0.00 | 0.00 | 0.00 | 90 | 1019.9 |
| 20260905205329 | 57 | 194 | 1.0 | 3.0 | 0.00 | 0.00 | 0.00 | 90 | 1019.9 |
| 20260905205313 | 57 | 200 | 0.0 | 3.0 | 0.00 | 0.00 | 0.00 | 90 | 1019.9 |
| 20260905205306 | 57 | 211 | 1.0 | 3.0 | 0.00 | 0.00 | 0.00 | 90 | 1020.1 |
| 20260905205250 | 58 | 192 | 0.0 | 3.0 | 0.00 | 0.00 | 0.00 | 89 | 1020.0 |
| 20260905205234 | 58 | 151 | 1.0 | 3.0 | 0.00 | 0.00 | 0.00 | 89 | 1019.7 |
| 20260905204959 | 58 | 191 | 0.0 | 3.0 | 0.00 | 0.00 | 0.00 | 87 | 1019.9 |
| 20260905204729 | 58 | 186 | 0.0 | 4.0 | 0.00 | 0.00 | 0.00 | 87 | 1020.0 |
| 20260905204713 | 58 | 186 | 1.0 | 6.0 | 0.00 | 0.00 | 0.00 | 86 | 1020.1 |
| 20260905204657 | 58 | 165 | 1.0 | 6.0 | 0.00 | 0.00 | 0.00 | 86 | 1019.7 |
| 20260905204641 | 59 | 217 | 1.0 | 6.0 | 0.00 | 0.00 | 0.00 | 85 | 1020.0 |
| 20260905204626 | 59 | 206 | 0.0 | 6.0 | 0.00 | 0.00 | 0.00 | 84 | 1019.6 |
| 20260905204609 | 59 | 207 | 0.0 | 6.0 | 0.00 | 0.00 | 0.00 | 84 | 1019.6 |
| 20260905204603 | 59 | 207 | 0.0 | 6.0 | 0.00 | 0.00 | 0.00 | 84 | 1019.7 |
| 20260905204328 | 59 | 226 | 1.0 | 6.0 | 0.00 | 0.00 | 0.00 | 82 | 1020.0 |
| 20260905204052 | 60 | 127 | 1.0 | 6.0 | 0.00 | 0.00 | 0.00 | 81 | 1019.9 |
| 20260905203824 | 60 | 186 | 1.0 | 6.0 | 0.00 | 0.00 | 0.00 | 81 | 1019.8 |
| 20260905203502 | 60 | 159 | 1.0 | 4.0 | 0.00 | 0.00 | 0.00 | 80 | 1019.8 |
| 20260905203403 | 60 | 202 | 0.0 | 4.0 | 0.00 | 0.00 | 0.00 | 79 | 1019.7 |
| 20260905203302 | 60 | 174 | 1.0 | 4.0 | 0.00 | 0.00 | 0.00 | 79 | 1019.7 |
| 20260905203244 | 60 | 75 | 2.0 | 4.0 | 0.00 | 0.00 | 0.00 | 78 | 1019.7 |
| 20260905203237 | 60 | 75 | 2.0 | 4.0 | 0.00 | 0.00 | 0.00 | 78 | 1019.6 |
| 20260905203222 | 60 | 78 | 2.0 | 7.0 | 0.00 | 0.00 | 0.00 | 78 | 1019.7 |
| 20260905202902 | 60 | 85 | 1.0 | 7.0 | 0.00 | 0.00 | 0.00 | 77 | 1019.5 |
| 20260905202850 | 62 | 66 | 4.0 | 7.0 | 0.00 | 0.00 | 0.00 | 74 | 1019.5 |
| 20260905202840 | 61 | 67 | 2.0 | 7.0 | 0.00 | 0.00 | 0.00 | 77 | 1019.5 |
| 20260905202821 | 61 | 253 | 1.0 | 7.0 | 0.00 | 0.00 | 0.00 | 76 | 1019.5 |
| 20260905202814 | 61 | 116 | 1.0 | 7.0 | 0.00 | 0.00 | 0.00 | 76 | 1019.6 |
| 20260905202758 | 61 | 24 | 2.0 | 7.0 | 0.00 | 0.00 | 0.00 | 76 | 1019.8 |
| 20260905202741 | 61 | 203 | 0.0 | 7.0 | 0.00 | 0.00 | 0.00 | 76 | 1019.7 |
| 20260905202726 | 61 | 143 | 1.0 | 7.0 | 0.00 | 0.00 | 0.00 | 75 | 1019.4 |
| 20260905202709 | 62 | 113 | 2.0 | 7.0 | 0.00 | 0.00 | 0.00 | 75 | 1019.5 |
| 20260905202223 | 62 | 219 | 3.0 | 4.0 | 0.00 | 0.00 | 0.00 | 74 | 1019.5 |
| 20260905201902 | 62 | 57 | 1.0 | 2.0 | 0.00 | 0.00 | 0.00 | 74 | 1019.0 |
| 20260905201846 | 62 | 138 | 1.0 | 2.0 | 0.00 | 0.00 | 0.00 | 73 | 1019.0 |
| 20260905201828 | 62 | 178 | 0.0 | 1.0 | 0.00 | 0.00 | 0.00 | 73 | 1019.0 |
| 20260905201822 | 62 | 194 | 0.0 | 1.0 | 0.00 | 0.00 | 0.00 | 73 | 1018.8 |
| 20260905201539 | 62 | 174 | 1.0 | 1.0 | 0.00 | 0.00 | 0.00 | 73 | 1018.4 |
| 20260905201522 | 62 | 196 | 0.0 | 1.0 | 0.00 | 0.00 | 0.00 | 73 | 1018.5 |
| 20260905201210 | 62 | 200 | 0.0 | 1.0 | 0.00 | 0.00 | 0.00 | 73 | 1018.7 |
| 20260905201202 | 62 | 200 | 0.0 | 1.0 | 0.00 | 0.00 | 0.00 | 73 | 1018.3 |
| 20260905201102 | 62 | 200 | 0.0 | 1.0 | 0.00 | 0.00 | 0.00 | 73 | 1018.2 |
| 20260905201002 | 62 | 200 | 0.0 | 1.0 | 0.00 | 0.00 | 0.00 | 73 | 1018.3 |
| 20260905200902 | 62 | 203 | 0.0 | 1.0 | 0.00 | 0.00 | 0.00 | 72 | 1018.4 |
| 20260905200802 | 62 | 204 | 0.0 | 1.0 | 0.00 | 0.00 | 0.00 | 72 | 1018.5 |
| 20260905200710 | 62 | 203 | 0.0 | 1.0 | 0.00 | 0.00 | 0.00 | 72 | 1018.5 |
| 20260905200703 | 62 | 203 | 0.0 | 1.0 | 0.00 | 0.00 | 0.00 | 72 | 1018.2 |
| 20260905200601 | 62 | 199 | 0.0 | 1.0 | 0.00 | 0.00 | 0.00 | 73 | 1018.1 |
| 20260905200402 | 62 | 200 | 0.0 | 0.0 | 0.00 | 0.00 | 0.00 | 73 | 1018.1 |
| 20260905200302 | 62 | 199 | 0.0 | 0.0 | 0.00 | 0.00 | 0.00 | 73 | 1018.1 |
| 20260905200210 | 62 | 199 | 0.0 | 0.0 | 0.00 | 0.00 | 0.00 | 73 | 1018.1 |
| 20260905200201 | 62 | 199 | 0.0 | 0.0 | 0.00 | 0.00 | 0.00 | 73 | 1018.1 |
| 20260905200004 | 62 | 199 | 0.0 | 0.0 | 0.00 | 0.00 | 0.00 | 73 | 1018.1 |
| 20260905195902 | 62 | 199 | 0.0 | 0.0 | 0.00 | 0.00 | 0.00 | 72 | 1018.1 |
| 20260905195802 | 62 | 199 | 0.0 | 0.0 | 0.00 | 0.00 | 0.00 | 72 | 1018.1 |
| 20260905195710 | 62 | 199 | 0.0 | 0.0 | 0.00 | 0.00 | 0.00 | 72 | 1018.1 |
| 20260905195703 | 62 | 199 | 0.0 | 0.0 | 0.00 | 0.00 | 0.00 | 72 | 1018.2 |
| 20260905195603 | 62 | 199 | 0.0 | 0.0 | 0.00 | 0.00 | 0.00 | 72 | 1018.0 |
| 20260905195501 | 62 | 199 | 0.0 | 0.0 | 0.00 | 0.00 | 0.00 | 72 | 1018.2 |
| 20260905195402 | 62 | 199 | 0.0 | 0.0 | 0.00 | 0.00 | 0.00 | 72 | 1018.2 |
| 20260905195338 | 62 | 199 | 0.0 | 0.0 | 0.00 | 0.00 | 0.00 | 72 | 1018.1 |
| 20260905195322 | 62 | 200 | 0.0 | 0.0 | 0.00 | 0.00 | 0.00 | 73 | 1018.1 |
| 20260905195315 | 62 | 199 | 0.0 | 0.0 | 0.00 | 0.00 | 0.00 | 73 | 1018.2 |
| 20260905195300 | 62 | 200 | 0.0 | 0.0 | 0.00 | 0.00 | 0.00 | 72 | 1018.2 |
| 20260905195243 | 62 | 200 | 0.0 | 0.0 | 0.00 | 0.00 | 0.00 | 72 | 1018.2 |
| 20260905194710 | 63 | 200 | 0.0 | 0.0 | 0.00 | 0.00 | 0.00 | 72 | 1018.0 |
| 20260905194702 | 63 | 200 | 0.0 | 0.0 | 0.00 | 0.00 | 0.00 | 72 | 1018.5 |
| 20260905194603 | 63 | 200 | 0.0 | 0.0 | 0.00 | 0.00 | 0.00 | 72 | 1018.3 |
| 20260905194503 | 63 | 200 | 0.0 | 0.0 | 0.00 | 0.00 | 0.00 | 72 | 1018.1 |
| 20260905194445 | 63 | 200 | 0.0 | 0.0 | 0.00 | 0.00 | 0.00 | 72 | 1018.3 |
| 20260905194413 | 63 | 200 | 0.0 | 0.0 | 0.00 | 0.00 | 0.00 | 72 | 1017.9 |
| 20260905194102 | 63 | 200 | 0.0 | 0.0 | 0.00 | 0.00 | 0.00 | 72 | 1018.2 |
| 20260905194002 | 63 | 200 | 0.0 | 0.0 | 0.00 | 0.00 | 0.00 | 72 | 1018.0 |
| 20260905193903 | 63 | 200 | 0.0 | 1.0 | 0.00 | 0.00 | 0.00 | 72 | 1018.0 |
| 20260905193821 | 63 | 200 | 0.0 | 1.0 | 0.00 | 0.00 | 0.00 | 72 | 1018.3 |
| 20260905193814 | 63 | 200 | 0.0 | 1.0 | 0.00 | 0.00 | 0.00 | 72 | 1018.0 |
| 20260905193759 | 63 | 201 | 0.0 | 1.0 | 0.00 | 0.00 | 0.00 | 73 | 1017.9 |
| 20260905193743 | 63 | 201 | 0.0 | 1.0 | 0.00 | 0.00 | 0.00 | 73 | 1017.9 |
| 20260905193728 | 63 | 201 | 0.0 | 1.0 | 0.00 | 0.00 | 0.00 | 73 | 1017.9 |
| 20260905193710 | 63 | 202 | 0.0 | 1.0 | 0.00 | 0.00 | 0.00 | 73 | 1018.1 |
| 20260905193654 | 63 | 202 | 0.0 | 1.0 | 0.00 | 0.00 | 0.00 | 72 | 1018.1 |
| 20260905192926 | 63 | 199 | 0.0 | 1.0 | 0.00 | 0.00 | 0.00 | 71 | 1018.0 |
| 20260905192920 | 63 | 200 | 0.0 | 0.0 | 0.00 | 0.00 | 0.00 | 71 | 1018.1 |
| 20260905192904 | 63 | 200 | 0.0 | 0.0 | 0.00 | 0.00 | 0.00 | 72 | 1018.1 |
| 20260905192847 | 63 | 200 | 0.0 | 1.0 | 0.00 | 0.00 | 0.00 | 72 | 1018.1 |
| 20260905192840 | 63 | 200 | 0.0 | 1.0 | 0.00 | 0.00 | 0.00 | 72 | 1018.0 |
| 20260905192826 | 63 | 200 | 0.0 | 1.0 | 0.00 | 0.00 | 0.00 | 71 | 1018.0 |
| 20260905192811 | 63 | 201 | 0.0 | 1.0 | 0.00 | 0.00 | 0.00 | 72 | 1018.0 |
| 20260905192534 | 63 | 199 | 0.0 | 1.0 | 0.00 | 0.00 | 0.00 | 72 | 1018.0 |
| 20260905192518 | 63 | 199 | 0.0 | 1.0 | 0.00 | 0.00 | 0.00 | 71 | 1018.0 |
| 20260905192511 | 63 | 199 | 0.0 | 1.0 | 0.00 | 0.00 | 0.00 | 71 | 1018.0 |
| 20260905192456 | 63 | 199 | 0.0 | 1.0 | 0.00 | 0.00 | 0.00 | 72 | 1017.9 |
| 20260905192440 | 63 | 199 | 0.0 | 1.0 | 0.00 | 0.00 | 0.00 | 71 | 1017.9 |
| 20260905192424 | 63 | 199 | 0.0 | 1.0 | 0.00 | 0.00 | 0.00 | 71 | 1018.2 |
| 20260905192408 | 63 | 199 | 0.0 | 1.0 | 0.00 | 0.00 | 0.00 | 71 | 1018.2 |
| 20260905192139 | 63 | 199 | 0.0 | 1.0 | 0.00 | 0.00 | 0.00 | 71 | 1018.0 |
| 20260905192123 | 63 | 190 | 0.0 | 1.0 | 0.00 | 0.00 | 0.00 | 71 | 1018.0 |
| 20260905192107 | 63 | 198 | 0.0 | 1.0 | 0.00 | 0.00 | 0.00 | 71 | 1018.0 |
| 20260905191611 | 63 | 197 | 0.0 | 1.0 | 0.00 | 0.00 | 0.00 | 70 | 1018.1 |
| 20260905191604 | 63 | 197 | 0.0 | 1.0 | 0.00 | 0.00 | 0.00 | 69 | 1018.1 |
| 20260905190802 | 64 | 164 | 0.0 | 1.0 | 0.00 | 0.00 | 0.00 | 69 | 1018.1 |
| 20260905190710 | 64 | 198 | 0.0 | 1.0 | 0.00 | 0.00 | 0.00 | 69 | 1018.1 |
| 20260905190702 | 64 | 198 | 0.0 | 1.0 | 0.00 | 0.00 | 0.00 | 69 | 1018.1 |
| 20260905190602 | 64 | 199 | 0.0 | 1.0 | 0.00 | 0.00 | 0.00 | 69 | 1017.8 |
| 20260905190503 | 64 | 199 | 0.0 | 1.0 | 0.00 | 0.00 | 0.00 | 69 | 1017.8 |
| 20260905190404 | 64 | 196 | 0.0 | 1.0 | 0.00 | 0.00 | 0.00 | 69 | 1017.8 |
| 20260905190302 | 64 | 196 | 0.0 | 1.0 | 0.00 | 0.00 | 0.00 | 69 | 1017.8 |
| 20260905190210 | 64 | 196 | 0.0 | 1.0 | 0.00 | 0.00 | 0.00 | 69 | 1017.8 |
| 20260905190202 | 64 | 196 | 0.0 | 1.0 | 0.00 | 0.00 | 0.00 | 69 | 1017.8 |
| 20260905190003 | 64 | 194 | 0.0 | 1.0 | 0.00 | 0.00 | 0.00 | 69 | 1018.0 |
| 20260905185903 | 64 | 190 | 0.0 | 1.0 | 0.00 | 0.00 | 0.00 | 69 | 1017.9 |
| 20260905185802 | 64 | 188 | 0.0 | 1.0 | 0.00 | 0.00 | 0.00 | 69 | 1017.9 |
| 20260905185710 | 64 | 198 | 0.0 | 1.0 | 0.00 | 0.00 | 0.00 | 69 | 1018.0 |
| 20260905185704 | 64 | 198 | 0.0 | 1.0 | 0.00 | 0.00 | 0.00 | 69 | 1017.7 |
| 20260905185648 | 64 | 198 | 0.0 | 1.0 | 0.00 | 0.00 | 0.00 | 69 | 1017.7 |
| 20260905185504 | 64 | 198 | 0.0 | 1.0 | 0.00 | 0.00 | 0.00 | 69 | 1018.1 |
| 20260905185446 | 64 | 196 | 0.0 | 1.0 | 0.00 | 0.00 | 0.00 | 70 | 1017.9 |
| 20260905185429 | 63 | 198 | 0.0 | 1.0 | 0.00 | 0.00 | 0.00 | 70 | 1017.8 |
| 20260905185413 | 63 | 198 | 0.0 | 1.0 | 0.00 | 0.00 | 0.00 | 69 | 1017.8 |
| 20260905185138 | 63 | 196 | 0.0 | 1.0 | 0.00 | 0.00 | 0.00 | 70 | 1017.8 |
| 20260905185123 | 63 | 214 | 0.0 | 1.0 | 0.00 | 0.00 | 0.00 | 71 | 1017.7 |
| 20260905184804 | 63 | 201 | 0.0 | 1.0 | 0.00 | 0.00 | 0.00 | 71 | 1017.7 |
| 20260905184710 | 63 | 199 | 0.0 | 1.0 | 0.00 | 0.00 | 0.00 | 71 | 1017.8 |
| 20260905184702 | 63 | 199 | 0.0 | 1.0 | 0.00 | 0.00 | 0.00 | 71 | 1017.8 |
| 20260905184637 | 63 | 197 | 0.0 | 0.0 | 0.00 | 0.00 | 0.00 | 72 | 1017.7 |
| 20260905184629 | 63 | 196 | 0.0 | 0.0 | 0.00 | 0.00 | 0.00 | 72 | 1017.6 |
| 20260905184613 | 63 | 196 | 0.0 | 0.0 | 0.00 | 0.00 | 0.00 | 72 | 1017.6 |
| 20260905184558 | 63 | 197 | 0.0 | 0.0 | 0.00 | 0.00 | 0.00 | 72 | 1017.8 |
| 20260905184542 | 63 | 197 | 0.0 | 0.0 | 0.00 | 0.00 | 0.00 | 72 | 1017.7 |
| 20260905184315 | 63 | 197 | 0.0 | 0.0 | 0.00 | 0.00 | 0.00 | 72 | 1017.8 |
| 20260905184300 | 63 | 198 | 0.0 | 0.0 | 0.00 | 0.00 | 0.00 | 71 | 1017.5 |
| 20260905184244 | 63 | 198 | 0.0 | 0.0 | 0.00 | 0.00 | 0.00 | 72 | 1017.5 |
| 20260905184008 | 63 | 197 | 0.0 | 0.0 | 0.00 | 0.00 | 0.00 | 72 | 1017.6 |
| 20260905183949 | 63 | 197 | 0.0 | 0.0 | 0.00 | 0.00 | 0.00 | 72 | 1017.5 |
| 20260905183943 | 63 | 197 | 0.0 | 0.0 | 0.00 | 0.00 | 0.00 | 72 | 1017.5 |
| 20260905183403 | 64 | 196 | 0.0 | 0.0 | 0.00 | 0.00 | 0.00 | 72 | 1017.5 |
| 20260905183303 | 64 | 196 | 0.0 | 0.0 | 0.00 | 0.00 | 0.00 | 72 | 1017.5 |
| 20260905183210 | 64 | 196 | 0.0 | 0.0 | 0.00 | 0.00 | 0.00 | 72 | 1017.4 |
| 20260905183203 | 64 | 196 | 0.0 | 0.0 | 0.00 | 0.00 | 0.00 | 72 | 1017.4 |
| 20260905183101 | 64 | 196 | 0.0 | 0.0 | 0.00 | 0.00 | 0.00 | 72 | 1017.4 |
| 20260905183003 | 64 | 196 | 0.0 | 1.0 | 0.00 | 0.00 | 0.00 | 72 | 1017.5 |
| 20260905182903 | 64 | 196 | 0.0 | 1.0 | 0.00 | 0.00 | 0.00 | 72 | 1017.6 |
| 20260905182846 | 64 | 196 | 0.0 | 1.0 | 0.00 | 0.00 | 0.00 | 72 | 1017.6 |
| 20260905182828 | 64 | 196 | 0.0 | 1.0 | 0.00 | 0.00 | 0.00 | 71 | 1017.4 |
| 20260905182821 | 64 | 197 | 0.0 | 1.0 | 0.00 | 0.00 | 0.00 | 71 | 1017.4 |
| 20260905182502 | 64 | 200 | 0.0 | 1.0 | 0.00 | 0.00 | 0.00 | 70 | 1017.5 |
| 20260905182402 | 64 | 196 | 0.0 | 1.0 | 0.00 | 0.00 | 0.00 | 70 | 1017.5 |
| 20260905182317 | 64 | 196 | 0.0 | 1.0 | 0.00 | 0.00 | 0.00 | 69 | 1017.5 |
| 20260905182311 | 64 | 194 | 0.0 | 1.0 | 0.00 | 0.00 | 0.00 | 71 | 1017.6 |
| 20260905182256 | 64 | 196 | 0.0 | 1.0 | 0.00 | 0.00 | 0.00 | 71 | 1017.4 |
| 20260905182236 | 64 | 196 | 0.0 | 1.0 | 0.00 | 0.00 | 0.00 | 70 | 1017.4 |
| 20260905182220 | 64 | 194 | 0.0 | 1.0 | 0.00 | 0.00 | 0.00 | 70 | 1017.5 |
| 20260905182204 | 64 | 192 | 0.0 | 1.0 | 0.00 | 0.00 | 0.00 | 70 | 1017.5 |
| 20260905181928 | 64 | 195 | 0.0 | 1.0 | 0.00 | 0.00 | 0.00 | 70 | 1017.5 |
| 20260905181658 | 64 | 196 | 0.0 | 1.0 | 0.00 | 0.00 | 0.00 | 69 | 1017.2 |
| 20260905181558 | 64 | 195 | 0.0 | 1.0 | 0.00 | 0.00 | 0.00 | 70 | 1017.3 |
| 20260905181458 | 64 | 195 | 0.0 | 1.0 | 0.00 | 0.00 | 0.00 | 70 | 1017.2 |
| 20260905181359 | 64 | 196 | 0.0 | 1.0 | 0.00 | 0.00 | 0.00 | 70 | 1017.3 |
| 20260905181258 | 64 | 197 | 0.0 | 1.0 | 0.00 | 0.00 | 0.00 | 70 | 1017.4 |
| 20260905181206 | 64 | 199 | 0.0 | 1.0 | 0.00 | 0.00 | 0.00 | 70 | 1017.4 |
| 20260905181158 | 64 | 199 | 0.0 | 1.0 | 0.00 | 0.00 | 0.00 | 70 | 1017.4 |
| 20260905181058 | 64 | 186 | 0.0 | 1.0 | 0.00 | 0.00 | 0.00 | 70 | 1017.5 |
| 20260905181000 | 64 | 194 | 0.0 | 1.0 | 0.00 | 0.00 | 0.00 | 69 | 1017.2 |
| 20260905180907 | 64 | 192 | 0.0 | 1.0 | 0.00 | 0.00 | 0.00 | 70 | 1017.4 |
| 20260905180851 | 64 | 198 | 0.0 | 1.0 | 0.00 | 0.00 | 0.00 | 70 | 1017.2 |
| 20260905180833 | 64 | 198 | 0.0 | 1.0 | 0.00 | 0.00 | 0.00 | 69 | 1017.2 |
| 20260905180827 | 64 | 198 | 0.0 | 1.0 | 0.00 | 0.00 | 0.00 | 69 | 1017.3 |
| 20260905180551 | 65 | 188 | 0.0 | 1.0 | 0.00 | 0.00 | 0.00 | 70 | 1017.3 |
| 20260905180536 | 65 | 195 | 0.0 | 1.0 | 0.00 | 0.00 | 0.00 | 69 | 1017.4 |
| 20260905180304 | 65 | 196 | 0.0 | 1.0 | 0.00 | 0.00 | 0.00 | 69 | 1017.2 |
| 20260905180255 | 65 | 195 | 0.0 | 1.0 | 0.00 | 0.00 | 0.00 | 69 | 1017.4 |
| 20260905175934 | 65 | 203 | 0.0 | 1.0 | 0.00 | 0.00 | 0.00 | 68 | 1017.5 |
| 20260905175834 | 65 | 198 | 0.0 | 1.0 | 0.00 | 0.00 | 0.00 | 68 | 1017.4 |
| 20260905175706 | 65 | 199 | 0.0 | 1.0 | 0.00 | 0.00 | 0.00 | 68 | 1017.3 |
| 20260905175634 | 65 | 196 | 0.0 | 1.0 | 0.00 | 0.00 | 0.00 | 68 | 1017.1 |
| 20260905175534 | 65 | 197 | 0.0 | 1.0 | 0.00 | 0.00 | 0.00 | 67 | 1017.2 |
| 20260905175434 | 65 | 203 | 0.0 | 1.0 | 0.00 | 0.00 | 0.00 | 67 | 1017.2 |
| 20260905175334 | 65 | 196 | 0.0 | 1.0 | 0.00 | 0.00 | 0.00 | 66 | 1017.3 |
| 20260905175316 | 65 | 185 | 0.0 | 1.0 | 0.00 | 0.00 | 0.00 | 67 | 1017.1 |
| 20260905175306 | 65 | 191 | 0.0 | 1.0 | 0.00 | 0.00 | 0.00 | 67 | 1017.1 |
| 20260905175254 | 65 | 192 | 0.0 | 1.0 | 0.00 | 0.00 | 0.00 | 67 | 1017.2 |
| 20260905175011 | 65 | 193 | 0.0 | 1.0 | 0.00 | 0.00 | 0.00 | 67 | 1017.2 |
| 20260905174955 | 65 | 192 | 0.0 | 1.0 | 0.00 | 0.00 | 0.00 | 66 | 1017.2 |
| 20260905174940 | 65 | 194 | 0.0 | 1.0 | 0.00 | 0.00 | 0.00 | 66 | 1017.1 |
| 20260905174925 | 65 | 196 | 0.0 | 1.0 | 0.00 | 0.00 | 0.00 | 66 | 1017.1 |
| 20260905174654 | 66 | 191 | 0.0 | 0.0 | 0.00 | 0.00 | 0.00 | 66 | 1017.2 |
| 20260905174359 | 66 | 196 | 0.0 | 0.0 | 0.00 | 0.00 | 0.00 | 66 | 1017.3 |
| 20260905174343 | 66 | 268 | 0.0 | 0.0 | 0.00 | 0.00 | 0.00 | 67 | 1017.0 |
| 20260905174330 | 66 | 268 | 0.0 | 0.0 | 0.00 | 0.00 | 0.00 | 66 | 1017.0 |
| 20260905174321 | 66 | 268 | 0.0 | 1.0 | 0.00 | 0.00 | 0.00 | 66 | 1017.1 |
| 20260905174306 | 66 | 194 | 0.0 | 1.0 | 0.00 | 0.00 | 0.00 | 67 | 1017.1 |
| 20260905174029 | 66 | 194 | 0.0 | 1.0 | 0.00 | 0.00 | 0.00 | 66 | 1017.0 |
| 20260905174013 | 66 | 191 | 0.0 | 1.0 | 0.00 | 0.00 | 0.00 | 66 | 1017.0 |
| 20260905173958 | 66 | 193 | 0.0 | 1.0 | 0.00 | 0.00 | 0.00 | 66 | 1017.0 |
| 20260905173729 | 66 | 198 | 0.0 | 1.0 | 0.00 | 0.00 | 0.00 | 66 | 1017.0 |
| 20260905173453 | 66 | 197 | 0.0 | 1.0 | 0.00 | 0.00 | 0.00 | 66 | 1017.1 |
| 20260905173206 | 66 | 202 | 0.0 | 1.0 | 0.00 | 0.00 | 0.00 | 65 | 1017.0 |
| 20260905173135 | 66 | 196 | 0.0 | 1.0 | 0.00 | 0.00 | 0.00 | 66 | 1017.1 |
| 20260905173044 | 66 | 197 | 0.0 | 1.0 | 0.00 | 0.00 | 0.00 | 66 | 1016.8 |
| 20260905173038 | 66 | 198 | 0.0 | 1.0 | 0.00 | 0.00 | 0.00 | 65 | 1017.0 |
| 20260905173023 | 66 | 198 | 0.0 | 1.0 | 0.00 | 0.00 | 0.00 | 66 | 1017.0 |
| 20260905173007 | 66 | 190 | 0.0 | 1.0 | 0.00 | 0.00 | 0.00 | 66 | 1017.0 |
| 20260905172953 | 66 | 198 | 0.0 | 1.0 | 0.00 | 0.00 | 0.00 | 66 | 1017.1 |
| 20260905172942 | 66 | 199 | 0.0 | 1.0 | 0.00 | 0.00 | 0.00 | 65 | 1017.1 |
| 20260905172931 | 66 | 196 | 0.0 | 1.0 | 0.00 | 0.00 | 0.00 | 66 | 1017.0 |
| 20260905172655 | 66 | 194 | 0.0 | 1.0 | 0.00 | 0.00 | 0.00 | 66 | 1017.1 |
| 20260905172421 | 66 | 197 | 0.0 | 1.0 | 0.00 | 0.00 | 0.00 | 66 | 1016.8 |
| 20260905172110 | 66 | 188 | 0.0 | 1.0 | 0.00 | 0.00 | 0.00 | 65 | 1016.9 |
| 20260905172010 | 66 | 134 | 0.0 | 1.0 | 0.00 | 0.00 | 0.00 | 66 | 1017.0 |
| 20260905171955 | 66 | 192 | 0.0 | 1.0 | 0.00 | 0.00 | 0.00 | 66 | 1017.1 |
| 20260905171939 | 66 | 192 | 0.0 | 1.0 | 0.00 | 0.00 | 0.00 | 67 | 1017.0 |
| 20260905171710 | 66 | 192 | 0.0 | 1.0 | 0.00 | 0.00 | 0.00 | 67 | 1017.0 |
| 20260905171610 | 66 | 190 | 0.0 | 1.0 | 0.00 | 0.00 | 0.00 | 67 | 1016.9 |
| 20260905171510 | 66 | 194 | 0.0 | 1.0 | 0.00 | 0.00 | 0.00 | 67 | 1016.9 |
| 20260905171410 | 66 | 195 | 0.0 | 1.0 | 0.00 | 0.00 | 0.00 | 68 | 1016.7 |
| 20260905171311 | 66 | 180 | 0.0 | 1.0 | 0.00 | 0.00 | 0.00 | 67 | 1016.9 |
| 20260905171210 | 66 | 187 | 0.0 | 1.0 | 0.00 | 0.00 | 0.00 | 67 | 1017.0 |
| 20260905171110 | 66 | 197 | 0.0 | 1.0 | 0.00 | 0.00 | 0.00 | 66 | 1016.9 |
| 20260905171046 | 66 | 191 | 0.0 | 1.0 | 0.00 | 0.00 | 0.00 | 66 | 1017.0 |
| 20260905171030 | 66 | 196 | 1.0 | 1.0 | 0.00 | 0.00 | 0.00 | 66 | 1017.1 |
| 20260905170711 | 66 | 193 | 0.0 | 1.0 | 0.00 | 0.00 | 0.00 | 66 | 1017.0 |
| 20260905170610 | 66 | 192 | 0.0 | 1.0 | 0.00 | 0.00 | 0.00 | 66 | 1016.8 |
| 20260905170554 | 66 | 197 | 0.0 | 1.0 | 0.00 | 0.00 | 0.00 | 66 | 1017.0 |
| 20260905170538 | 66 | 187 | 0.0 | 1.0 | 0.00 | 0.00 | 0.00 | 67 | 1016.9 |
| 20260905170314 | 66 | 189 | 0.0 | 1.0 | 0.00 | 0.00 | 0.00 | 67 | 1016.9 |
| 20260905170252 | 66 | 196 | 0.0 | 1.0 | 0.00 | 0.00 | 0.00 | 67 | 1016.8 |
| 20260905170236 | 66 | 186 | 0.0 | 1.0 | 0.00 | 0.00 | 0.00 | 67 | 1016.8 |
| 20260905170011 | 66 | 194 | 0.0 | 1.0 | 0.00 | 0.00 | 0.00 | 67 | 1016.7 |
| 20260905165955 | 66 | 194 | 0.0 | 1.0 | 0.00 | 0.00 | 0.00 | 66 | 1016.8 |
| 20260905165940 | 66 | 195 | 0.0 | 1.0 | 0.00 | 0.00 | 0.00 | 67 | 1016.9 |
| 20260905165919 | 66 | 193 | 0.0 | 1.0 | 0.00 | 0.00 | 0.00 | 67 | 1016.9 |
| 20260905165610 | 67 | 194 | 0.0 | 1.0 | 0.00 | 0.00 | 0.00 | 66 | 1016.7 |
| 20260905165511 | 67 | 188 | 0.0 | 1.0 | 0.00 | 0.00 | 0.00 | 66 | 1016.8 |
| 20260905165410 | 67 | 195 | 0.0 | 0.0 | 0.00 | 0.00 | 0.00 | 65 | 1016.9 |
| 20260905165311 | 67 | 197 | 0.0 | 0.0 | 0.00 | 0.00 | 0.00 | 65 | 1016.7 |
| 20260905165210 | 67 | 195 | 0.0 | 0.0 | 0.00 | 0.00 | 0.00 | 65 | 1016.7 |
| 20260905165110 | 67 | 203 | 0.0 | 0.0 | 0.00 | 0.00 | 0.00 | 65 | 1016.8 |
| 20260905165010 | 67 | 192 | 0.0 | 0.0 | 0.00 | 0.00 | 0.00 | 65 | 1016.8 |
| 20260905164914 | 67 | 122 | 0.0 | 0.0 | 0.00 | 0.00 | 0.00 | 66 | 1016.7 |
| 20260905164812 | 67 | 192 | 0.0 | 0.0 | 0.00 | 0.00 | 0.00 | 66 | 1016.7 |
| 20260905164709 | 67 | 194 | 0.0 | 0.0 | 0.00 | 0.00 | 0.00 | 65 | 1016.7 |
| 20260905164421 | 67 | 196 | 0.0 | 1.0 | 0.00 | 0.00 | 0.00 | 64 | 1016.8 |
| 20260905164405 | 67 | 195 | 0.0 | 1.0 | 0.00 | 0.00 | 0.00 | 64 | 1016.6 |
| 20260905164350 | 67 | 195 | 0.0 | 1.0 | 0.00 | 0.00 | 0.00 | 64 | 1016.6 |
| 20260905163853 | 67 | 193 | 0.0 | 1.0 | 0.00 | 0.00 | 0.00 | 65 | 1016.6 |
| 20260905163537 | 67 | 196 | 0.0 | 2.0 | 0.00 | 0.00 | 0.00 | 64 | 1016.8 |
| 20260905163438 | 67 | 198 | 0.0 | 2.0 | 0.00 | 0.00 | 0.00 | 64 | 1016.6 |
| 20260905163339 | 67 | 196 | 0.0 | 2.0 | 0.00 | 0.00 | 0.00 | 64 | 1016.8 |
| 20260905163321 | 67 | 207 | 0.0 | 2.0 | 0.00 | 0.00 | 0.00 | 64 | 1016.8 |
| 20260905163308 | 67 | 197 | 0.0 | 2.0 | 0.00 | 0.00 | 0.00 | 64 | 1016.8 |
| 20260905163259 | 67 | 191 | 0.0 | 2.0 | 0.00 | 0.00 | 0.00 | 64 | 1016.6 |
| 20260905162938 | 67 | 191 | 0.0 | 2.0 | 0.00 | 0.00 | 0.00 | 64 | 1016.9 |
| 20260905162905 | 68 | 195 | 0.0 | 2.0 | 0.00 | 0.00 | 0.00 | 63 | 1016.5 |
| 20260905162857 | 67 | 190 | 0.0 | 2.0 | 0.00 | 0.00 | 0.00 | 64 | 1016.6 |
| 20260905162840 | 67 | 192 | 0.0 | 2.0 | 0.00 | 0.00 | 0.00 | 64 | 1016.6 |
| 20260905162824 | 67 | 197 | 0.0 | 2.0 | 0.00 | 0.00 | 0.00 | 64 | 1016.6 |
| 20260905162815 | 67 | 182 | 0.0 | 2.0 | 0.00 | 0.00 | 0.00 | 64 | 1016.5 |
| 20260905162550 | 67 | 199 | 0.0 | 2.0 | 0.00 | 0.00 | 0.00 | 64 | 1016.3 |
| 20260905162535 | 67 | 123 | 0.0 | 2.0 | 0.00 | 0.00 | 0.00 | 64 | 1016.5 |
| 20260905162519 | 67 | 193 | 0.0 | 1.0 | 0.00 | 0.00 | 0.00 | 64 | 1016.5 |
| 20260905162503 | 67 | 194 | 0.0 | 2.0 | 0.00 | 0.00 | 0.00 | 64 | 1016.5 |
| 20260905162450 | 67 | 173 | 0.0 | 2.0 | 0.00 | 0.00 | 0.00 | 64 | 1016.5 |
| 20260905162441 | 67 | 194 | 0.0 | 2.0 | 0.00 | 0.00 | 0.00 | 64 | 1016.4 |
| 20260905162425 | 67 | 196 | 0.0 | 2.0 | 0.00 | 0.00 | 0.00 | 64 | 1016.6 |
| 20260905162149 | 68 | 196 | 0.0 | 2.0 | 0.00 | 0.00 | 0.00 | 63 | 1016.5 |
| 20260905161639 | 68 | 196 | 0.0 | 2.0 | 0.00 | 0.00 | 0.00 | 63 | 1016.3 |
| 20260905161538 | 68 | 196 | 0.0 | 2.0 | 0.00 | 0.00 | 0.00 | 63 | 1016.6 |
| 20260905161526 | 68 | 276 | 0.0 | 2.0 | 0.00 | 0.00 | 0.00 | 63 | 1016.2 |
| 20260905161517 | 68 | 194 | 0.0 | 2.0 | 0.00 | 0.00 | 0.00 | 63 | 1016.4 |
| 20260905161500 | 68 | 199 | 0.0 | 2.0 | 0.00 | 0.00 | 0.00 | 63 | 1016.5 |
| 20260905161443 | 68 | 158 | 0.0 | 1.0 | 0.00 | 0.00 | 0.00 | 63 | 1016.2 |
| 20260905161215 | 68 | 190 | 0.0 | 2.0 | 0.00 | 0.00 | 0.00 | 63 | 1016.3 |
| 20260905161200 | 68 | 190 | 0.0 | 2.0 | 0.00 | 0.00 | 0.00 | 63 | 1016.3 |
| 20260905160858 | 68 | 202 | 0.0 | 3.0 | 0.00 | 0.00 | 0.00 | 61 | 1016.1 |
| 20260905160851 | 68 | 194 | 0.0 | 2.0 | 0.00 | 0.00 | 0.00 | 63 | 1016.2 |
| 20260905160835 | 68 | 204 | 0.0 | 3.0 | 0.00 | 0.00 | 0.00 | 63 | 1016.3 |
| 20260905160820 | 68 | 192 | 0.0 | 3.0 | 0.00 | 0.00 | 0.00 | 63 | 1016.3 |
| 20260905160757 | 68 | 114 | 0.0 | 3.0 | 0.00 | 0.00 | 0.00 | 63 | 1016.3 |
| 20260905160740 | 68 | 201 | 0.0 | 3.0 | 0.00 | 0.00 | 0.00 | 62 | 1016.3 |
| 20260905160504 | 68 | 144 | 0.0 | 3.0 | 0.00 | 0.00 | 0.00 | 62 | 1016.3 |
| 20260905160240 | 68 | 190 | 0.0 | 3.0 | 0.00 | 0.00 | 0.00 | 62 | 1016.2 |
| 20260905160227 | 68 | 182 | 0.0 | 3.0 | 0.00 | 0.00 | 0.00 | 62 | 1016.2 |
| 20260905160218 | 68 | 167 | 0.0 | 3.0 | 0.00 | 0.00 | 0.00 | 62 | 1016.1 |
| 20260905160200 | 68 | 194 | 0.0 | 3.0 | 0.00 | 0.00 | 0.00 | 62 | 1016.4 |
| 20260905160145 | 68 | 194 | 0.0 | 3.0 | 0.00 | 0.00 | 0.00 | 62 | 1016.1 |
| 20260905160128 | 68 | 144 | 0.0 | 3.0 | 0.00 | 0.00 | 0.00 | 61 | 1016.2 |
| 20260905160112 | 68 | 199 | 0.0 | 3.0 | 0.00 | 0.00 | 0.00 | 61 | 1016.1 |
| 20260905155538 | 68 | 194 | 0.0 | 3.0 | 0.00 | 0.00 | 0.00 | 61 | 1016.1 |
| 20260905155514 | 68 | 170 | 0.0 | 3.0 | 0.00 | 0.00 | 0.00 | 61 | 1016.2 |
| 20260905155458 | 68 | 132 | 0.0 | 3.0 | 0.00 | 0.00 | 0.00 | 61 | 1016.2 |
| 20260905155210 | 68 | 159 | 0.0 | 3.0 | 0.00 | 0.00 | 0.00 | 60 | 1015.9 |
| 20260905155138 | 68 | 191 | 0.0 | 3.0 | 0.00 | 0.00 | 0.00 | 60 | 1016.1 |
| 20260905155038 | 68 | 58 | 1.0 | 3.0 | 0.00 | 0.00 | 0.00 | 60 | 1016.1 |
| 20260905154937 | 69 | 44 | 1.0 | 3.0 | 0.00 | 0.00 | 0.00 | 59 | 1016.1 |
| 20260905154839 | 69 | 168 | 0.0 | 3.0 | 0.00 | 0.00 | 0.00 | 60 | 1016.0 |
| 20260905154738 | 69 | 183 | 1.0 | 3.0 | 0.00 | 0.00 | 0.00 | 59 | 1016.1 |
| 20260905154712 | 69 | 159 | 2.0 | 3.0 | 0.00 | 0.00 | 0.00 | 59 | 1016.1 |
| 20260905154638 | 69 | 192 | 1.0 | 3.0 | 0.00 | 0.00 | 0.00 | 59 | 1016.0 |
| 20260905154538 | 69 | 190 | 0.0 | 3.0 | 0.00 | 0.00 | 0.00 | 59 | 1016.3 |
| 20260905154502 | 69 | 163 | 1.0 | 3.0 | 0.00 | 0.00 | 0.00 | 59 | 1016.2 |
| 20260905154446 | 69 | 209 | 1.0 | 3.0 | 0.00 | 0.00 | 0.00 | 59 | 1016.0 |
| 20260905154430 | 69 | 181 | 0.0 | 3.0 | 0.00 | 0.00 | 0.00 | 59 | 1015.7 |
| 20260905154416 | 69 | 183 | 0.0 | 3.0 | 0.00 | 0.00 | 0.00 | 59 | 1015.7 |
| 20260905154407 | 69 | 195 | 1.0 | 3.0 | 0.00 | 0.00 | 0.00 | 59 | 1016.1 |
| 20260905154351 | 69 | 194 | 0.0 | 3.0 | 0.00 | 0.00 | 0.00 | 58 | 1016.3 |
| 20260905154335 | 69 | 102 | 1.0 | 7.0 | 0.00 | 0.00 | 0.00 | 59 | 1016.3 |
| 20260905154100 | 69 | 199 | 0.0 | 7.0 | 0.00 | 0.00 | 0.00 | 59 | 1016.1 |
| 20260905154045 | 69 | 192 | 1.0 | 7.0 | 0.00 | 0.00 | 0.00 | 59 | 1016.1 |
| 20260905154036 | 69 | 187 | 1.0 | 7.0 | 0.00 | 0.00 | 0.00 | 58 | 1016.2 |
| 20260905153540 | 69 | 114 | 1.0 | 7.0 | 0.00 | 0.00 | 0.00 | 58 | 1016.0 |
| 20260905153307 | 70 | 72 | 0.0 | 7.0 | 0.00 | 0.00 | 0.00 | 58 | 1015.9 |
| 20260905153258 | 70 | 186 | 0.0 | 7.0 | 0.00 | 0.00 | 0.00 | 58 | 1016.1 |
| 20260905152938 | 70 | 158 | 1.0 | 3.0 | 0.00 | 0.00 | 0.00 | 58 | 1016.0 |
| 20260905152839 | 70 | 222 | 1.0 | 3.0 | 0.00 | 0.00 | 0.00 | 58 | 1015.9 |
| 20260905152739 | 70 | 183 | 1.0 | 3.0 | 0.00 | 0.00 | 0.00 | 57 | 1016.0 |
| 20260905152710 | 70 | 144 | 1.0 | 3.0 | 0.00 | 0.00 | 0.00 | 57 | 1016.0 |
| 20260905152639 | 70 | 195 | 0.0 | 3.0 | 0.00 | 0.00 | 0.00 | 58 | 1015.9 |
| 20260905152537 | 70 | 197 | 1.0 | 3.0 | 0.00 | 0.00 | 0.00 | 58 | 1016.2 |
| 20260905152439 | 70 | 66 | 1.0 | 3.0 | 0.00 | 0.00 | 0.00 | 58 | 1015.9 |
| 20260905152338 | 70 | 191 | 0.0 | 3.0 | 0.00 | 0.00 | 0.00 | 57 | 1015.8 |
| 20260905152238 | 70 | 204 | 0.0 | 3.0 | 0.00 | 0.00 | 0.00 | 57 | 1016.0 |
| 20260905152222 | 70 | 173 | 0.0 | 3.0 | 0.00 | 0.00 | 0.00 | 57 | 1016.0 |
| 20260905152212 | 70 | 199 | 2.0 | 3.0 | 0.00 | 0.00 | 0.00 | 57 | 1015.8 |
| 20260905152158 | 70 | 301 | 1.0 | 3.0 | 0.00 | 0.00 | 0.00 | 57 | 1016.0 |
| 20260905151915 | 70 | 125 | 1.0 | 8.0 | 0.00 | 0.00 | 0.00 | 57 | 1016.0 |
| 20260905151900 | 70 | 105 | 1.0 | 8.0 | 0.00 | 0.00 | 0.00 | 57 | 1015.8 |
| 20260905151843 | 70 | 203 | 0.0 | 8.0 | 0.00 | 0.00 | 0.00 | 57 | 1015.8 |
| 20260905151834 | 70 | 171 | 0.0 | 8.0 | 0.00 | 0.00 | 0.00 | 57 | 1016.0 |
| 20260905151817 | 70 | 189 | 0.0 | 8.0 | 0.00 | 0.00 | 0.00 | 57 | 1015.7 |
| 20260905151238 | 70 | 66 | 1.0 | 8.0 | 0.00 | 0.00 | 0.00 | 56 | 1015.9 |
| 20260905151212 | 70 | 88 | 2.0 | 8.0 | 0.00 | 0.00 | 0.00 | 57 | 1015.9 |
| 20260905151139 | 70 | 109 | 1.0 | 8.0 | 0.00 | 0.00 | 0.00 | 57 | 1016.0 |
| 20260905151108 | 70 | 67 | 1.0 | 8.0 | 0.00 | 0.00 | 0.00 | 57 | 1015.8 |
| 20260905151051 | 70 | 90 | 2.0 | 8.0 | 0.00 | 0.00 | 0.00 | 56 | 1016.0 |
| 20260905151036 | 70 | 186 | 1.0 | 3.0 | 0.00 | 0.00 | 0.00 | 56 | 1015.7 |
| 20260905151020 | 70 | 69 | 1.0 | 3.0 | 0.00 | 0.00 | 0.00 | 56 | 1015.8 |
| 20260905151005 | 71 | 147 | 2.0 | 3.0 | 0.00 | 0.00 | 0.00 | 56 | 1015.8 |
| 20260905150956 | 71 | 179 | 0.0 | 3.0 | 0.00 | 0.00 | 0.00 | 56 | 1015.9 |
| 20260905150459 | 71 | 133 | 2.0 | 3.0 | 0.00 | 0.00 | 0.00 | 56 | 1015.9 |
| 20260905150210 | 71 | 189 | 1.0 | 3.0 | 0.00 | 0.00 | 0.00 | 56 | 1015.8 |
| 20260905150139 | 71 | 181 | 2.0 | 3.0 | 0.00 | 0.00 | 0.00 | 57 | 1015.9 |
| 20260905150039 | 71 | 206 | 0.0 | 3.0 | 0.00 | 0.00 | 0.00 | 57 | 1015.9 |
| 20260905145940 | 70 | 191 | 0.0 | 3.0 | 0.00 | 0.00 | 0.00 | 57 | 1015.8 |
| 20260905145924 | 70 | 194 | 2.0 | 3.0 | 0.00 | 0.00 | 0.00 | 57 | 1015.7 |
| 20260905145909 | 70 | 200 | 0.0 | 3.0 | 0.00 | 0.00 | 0.00 | 57 | 1015.6 |
| 20260905145853 | 70 | 205 | 0.0 | 3.0 | 0.00 | 0.00 | 0.00 | 57 | 1015.6 |
| 20260905145527 | 70 | 196 | 0.0 | 3.0 | 0.00 | 0.00 | 0.00 | 58 | 1016.0 |
| 20260905145431 | 70 | 163 | 0.0 | 3.0 | 0.00 | 0.00 | 0.00 | 57 | 1016.0 |
| 20260905145404 | 70 | 98 | 1.0 | 3.0 | 0.00 | 0.00 | 0.00 | 56 | 1015.6 |
| 20260905145347 | 70 | 22 | 1.0 | 3.0 | 0.00 | 0.00 | 0.00 | 57 | 1015.8 |
| 20260905145335 | 70 | 152 | 1.0 | 3.0 | 0.00 | 0.00 | 0.00 | 57 | 1015.8 |
| 20260905145325 | 70 | 207 | 1.0 | 3.0 | 0.00 | 0.00 | 0.00 | 58 | 1015.8 |
| 20260905145048 | 70 | 270 | 2.0 | 3.0 | 0.00 | 0.00 | 0.00 | 59 | 1015.8 |
| 20260905144727 | 70 | 102 | 0.0 | 3.0 | 0.00 | 0.00 | 0.00 | 59 | 1015.6 |
| 20260905144711 | 70 | 190 | 0.0 | 3.0 | 0.00 | 0.00 | 0.00 | 59 | 1015.6 |
| 20260905144654 | 70 | 129 | 0.0 | 3.0 | 0.00 | 0.00 | 0.00 | 59 | 1015.7 |
| 20260905144638 | 71 | 163 | 1.0 | 3.0 | 0.00 | 0.00 | 0.00 | 58 | 1015.8 |
| 20260905144621 | 71 | 190 | 0.0 | 3.0 | 0.00 | 0.00 | 0.00 | 59 | 1015.7 |
| 20260905144606 | 71 | 152 | 1.0 | 3.0 | 0.00 | 0.00 | 0.00 | 59 | 1015.8 |
| 20260905144334 | 71 | 213 | 1.0 | 3.0 | 0.00 | 0.00 | 0.00 | 59 | 1015.9 |
| 20260905144324 | 71 | 183 | 0.0 | 3.0 | 0.00 | 0.00 | 0.00 | 59 | 1015.8 |
| 20260905144047 | 71 | 58 | 1.0 | 3.0 | 0.00 | 0.00 | 0.00 | 59 | 1015.8 |
| 20260905143712 | 71 | 182 | 0.0 | 3.0 | 0.00 | 0.00 | 0.00 | 59 | 1015.8 |
| 20260905143702 | 71 | 142 | 0.0 | 3.0 | 0.00 | 0.00 | 0.00 | 59 | 1015.8 |
| 20260905143646 | 71 | 155 | 0.0 | 2.0 | 0.00 | 0.00 | 0.00 | 59 | 1015.8 |
| 20260905143327 | 71 | 189 | 0.0 | 2.0 | 0.00 | 0.00 | 0.00 | 60 | 1015.5 |
| 20260905143209 | 70 | 171 | 0.0 | 2.0 | 0.00 | 0.00 | 0.00 | 61 | 1015.6 |
| 20260905143126 | 70 | 200 | 1.0 | 2.0 | 0.00 | 0.00 | 0.00 | 60 | 1015.6 |
| 20260905143026 | 70 | 192 | 0.0 | 2.0 | 0.00 | 0.00 | 0.00 | 61 | 1015.6 |
| 20260905142926 | 70 | 196 | 0.0 | 3.0 | 0.00 | 0.00 | 0.00 | 61 | 1015.6 |
| 20260905142826 | 69 | 207 | 1.0 | 3.0 | 0.00 | 0.00 | 0.00 | 60 | 1015.6 |
| 20260905142728 | 69 | 190 | 0.0 | 3.0 | 0.00 | 0.00 | 0.00 | 61 | 1015.9 |
| 20260905142712 | 69 | 245 | 0.0 | 3.0 | 0.00 | 0.00 | 0.00 | 61 | 1015.9 |
| 20260905142704 | 69 | 192 | 0.0 | 3.0 | 0.00 | 0.00 | 0.00 | 63 | 1016.0 |
| 20260905142700 | 70 | 134 | 1.0 | 3.0 | 0.00 | 0.00 | 0.00 | 62 | 1015.6 |
| 20260905142652 | 69 | 50 | 1.0 | 3.0 | 0.00 | 0.00 | 0.00 | 62 | 1015.7 |
| 20260905142637 | 69 | 164 | 1.0 | 3.0 | 0.00 | 0.00 | 0.00 | 62 | 1015.8 |
| 20260905142621 | 69 | 179 | 0.0 | 3.0 | 0.00 | 0.00 | 0.00 | 62 | 1015.7 |
| 20260905142605 | 69 | 195 | 0.0 | 3.0 | 0.00 | 0.00 | 0.00 | 63 | 1015.9 |
| 20260905142547 | 69 | 192 | 0.0 | 3.0 | 0.00 | 0.00 | 0.00 | 63 | 1016.0 |
| 20260905142101 | 69 | 187 | 0.0 | 3.0 | 0.00 | 0.00 | 0.00 | 62 | 1015.8 |
| 20260905142045 | 69 | 189 | 0.0 | 3.0 | 0.00 | 0.00 | 0.00 | 62 | 1015.6 |
| 20260905142030 | 70 | 195 | 0.0 | 3.0 | 0.00 | 0.00 | 0.00 | 62 | 1015.8 |
| 20260905141801 | 70 | 220 | 0.0 | 3.0 | 0.00 | 0.00 | 0.00 | 61 | 1015.8 |
| 20260905141746 | 70 | 196 | 0.0 | 3.0 | 0.00 | 0.00 | 0.00 | 62 | 1015.7 |
| 20260905141729 | 70 | 144 | 0.0 | 3.0 | 0.00 | 0.00 | 0.00 | 61 | 1015.7 |
| 20260905141714 | 70 | 166 | 1.0 | 3.0 | 0.00 | 0.00 | 0.00 | 61 | 1015.8 |
| 20260905141436 | 70 | 134 | 1.0 | 3.0 | 0.00 | 0.00 | 0.00 | 62 | 1015.6 |
| 20260905141114 | 70 | 200 | 2.0 | 3.0 | 0.00 | 0.00 | 0.00 | 61 | 1015.8 |
| 20260905141014 | 70 | 196 | 0.0 | 3.0 | 0.00 | 0.00 | 0.00 | 61 | 1015.7 |
| 20260905140915 | 71 | 197 | 0.0 | 3.0 | 0.00 | 0.00 | 0.00 | 60 | 1015.8 |
| 20260905140858 | 71 | 108 | 0.0 | 3.0 | 0.00 | 0.00 | 0.00 | 60 | 1015.8 |
| 20260905140833 | 71 | 187 | 0.0 | 3.0 | 0.00 | 0.00 | 0.00 | 61 | 1015.7 |
| 20260905140550 | 71 | 146 | 0.0 | 3.0 | 0.00 | 0.00 | 0.00 | 60 | 1015.9 |
| 20260905140534 | 71 | 191 | 0.0 | 3.0 | 0.00 | 0.00 | 0.00 | 61 | 1015.7 |
| 20260905140214 | 71 | 193 | 0.0 | 3.0 | 0.00 | 0.00 | 0.00 | 61 | 1015.6 |
| 20260905140115 | 71 | 176 | 0.0 | 3.0 | 0.00 | 0.00 | 0.00 | 61 | 1015.7 |
| 20260905140015 | 71 | 202 | 0.0 | 2.0 | 0.00 | 0.00 | 0.00 | 61 | 1016.1 |
| 20260905135959 | 71 | 204 | 1.0 | 2.0 | 0.00 | 0.00 | 0.00 | 61 | 1015.8 |
| 20260905135943 | 71 | 202 | 0.0 | 2.0 | 0.00 | 0.00 | 0.00 | 61 | 1015.8 |
| 20260905135714 | 71 | 273 | 1.0 | 2.0 | 0.00 | 0.00 | 0.00 | 61 | 1015.5 |
| 20260905135614 | 72 | 200 | 0.0 | 2.0 | 0.00 | 0.00 | 0.00 | 61 | 1015.6 |
| 20260905135514 | 72 | 199 | 0.0 | 2.0 | 0.00 | 0.00 | 0.00 | 61 | 1015.7 |
| 20260905135457 | 72 | 200 | 0.0 | 1.0 | 0.00 | 0.00 | 0.00 | 61 | 1015.7 |
| 20260905135441 | 71 | 124 | 0.0 | 2.0 | 0.00 | 0.00 | 0.00 | 61 | 1015.7 |
| 20260905135214 | 71 | 225 | 0.0 | 2.0 | 0.00 | 0.00 | 0.00 | 61 | 1015.9 |
| 20260905135114 | 71 | 199 | 0.0 | 2.0 | 0.00 | 0.00 | 0.00 | 62 | 1015.8 |
| 20260905135048 | 71 | 202 | 0.0 | 2.0 | 0.00 | 0.00 | 0.00 | 62 | 1015.7 |
| 20260905135032 | 71 | 205 | 0.0 | 2.0 | 0.00 | 0.00 | 0.00 | 63 | 1015.8 |
| 20260905135017 | 71 | 198 | 0.0 | 2.0 | 0.00 | 0.00 | 0.00 | 62 | 1015.8 |
| 20260905134953 | 71 | 200 | 0.0 | 2.0 | 0.00 | 0.00 | 0.00 | 62 | 1015.8 |
| 20260905134937 | 71 | 198 | 0.0 | 2.0 | 0.00 | 0.00 | 0.00 | 62 | 1015.6 |
| 20260905134701 | 71 | 177 | 0.0 | 4.0 | 0.00 | 0.00 | 0.00 | 62 | 1015.7 |
| 20260905134214 | 71 | 121 | 2.0 | 4.0 | 0.00 | 0.00 | 0.00 | 62 | 1015.6 |
| 20260905134115 | 71 | 211 | 1.0 | 4.0 | 0.00 | 0.00 | 0.00 | 62 | 1015.9 |
| 20260905134014 | 71 | 48 | 1.0 | 4.0 | 0.00 | 0.00 | 0.00 | 62 | 1015.8 |
| 20260905133952 | 71 | 199 | 1.0 | 4.0 | 0.00 | 0.00 | 0.00 | 62 | 1015.8 |
| 20260905133937 | 71 | 204 | 0.0 | 4.0 | 0.00 | 0.00 | 0.00 | 62 | 1015.8 |
| 20260905133912 | 71 | 216 | 0.0 | 4.0 | 0.00 | 0.00 | 0.00 | 62 | 1016.0 |
| 20260905133856 | 71 | 186 | 1.0 | 4.0 | 0.00 | 0.00 | 0.00 | 62 | 1015.8 |
| 20260905133315 | 71 | 188 | 0.0 | 3.0 | 0.00 | 0.00 | 0.00 | 62 | 1015.9 |
| 20260905133215 | 71 | 195 | 0.0 | 3.0 | 0.00 | 0.00 | 0.00 | 61 | 1016.1 |
| 20260905133114 | 71 | 185 | 1.0 | 3.0 | 0.00 | 0.00 | 0.00 | 60 | 1016.0 |
| 20260905133017 | 70 | 208 | 0.0 | 3.0 | 0.00 | 0.00 | 0.00 | 61 | 1015.9 |
| 20260905133000 | 70 | 187 | 0.0 | 3.0 | 0.00 | 0.00 | 0.00 | 61 | 1015.7 |
| 20260905132944 | 69 | 199 | 0.0 | 3.0 | 0.00 | 0.00 | 0.00 | 61 | 1015.9 |
| 20260905132715 | 69 | 221 | 0.0 | 3.0 | 0.00 | 0.00 | 0.00 | 62 | 1016.0 |
| 20260905132651 | 69 | 197 | 0.0 | 4.0 | 0.00 | 0.00 | 0.00 | 61 | 1015.8 |
| 20260905132635 | 69 | 167 | 0.0 | 4.0 | 0.00 | 0.00 | 0.00 | 62 | 1016.2 |
| 20260905132317 | 69 | 191 | 0.0 | 4.0 | 0.00 | 0.00 | 0.00 | 62 | 1015.7 |
| 20260905132214 | 69 | 30 | 0.0 | 4.0 | 0.00 | 0.00 | 0.00 | 62 | 1015.9 |
| 20260905132115 | 69 | 189 | 2.0 | 4.0 | 0.00 | 0.00 | 0.00 | 62 | 1015.7 |
| 20260905132018 | 69 | 224 | 2.0 | 4.0 | 0.00 | 0.00 | 0.00 | 63 | 1016.0 |
| 20260905132014 | 69 | 138 | 1.0 | 4.0 | 0.00 | 0.00 | 0.00 | 63 | 1015.8 |
| 20260905131958 | 69 | 181 | 0.0 | 4.0 | 0.00 | 0.00 | 0.00 | 62 | 1016.1 |
| 20260905131943 | 69 | 184 | 1.0 | 4.0 | 0.00 | 0.00 | 0.00 | 63 | 1016.0 |
| 20260905131924 | 69 | 224 | 2.0 | 4.0 | 0.00 | 0.00 | 0.00 | 63 | 1016.0 |
| 20260905131652 | 69 | 199 | 0.0 | 4.0 | 0.00 | 0.00 | 0.00 | 63 | 1016.0 |
| 20260905131636 | 69 | 182 | 0.0 | 4.0 | 0.00 | 0.00 | 0.00 | 63 | 1016.2 |
| 20260905131314 | 69 | 211 | 1.0 | 4.0 | 0.00 | 0.00 | 0.00 | 62 | 1015.9 |
| 20260905131250 | 69 | 47 | 1.0 | 3.0 | 0.00 | 0.00 | 0.00 | 62 | 1015.9 |
| 20260905131234 | 69 | 221 | 1.0 | 3.0 | 0.00 | 0.00 | 0.00 | 62 | 1015.7 |
| 20260905130914 | 69 | 281 | 0.0 | 4.0 | 0.00 | 0.00 | 0.00 | 62 | 1016.0 |
| 20260905130814 | 69 | 195 | 0.0 | 4.0 | 0.00 | 0.00 | 0.00 | 62 | 1015.9 |
| 20260905130714 | 69 | 192 | 0.0 | 4.0 | 0.00 | 0.00 | 0.00 | 62 | 1016.1 |
| 20260905130614 | 69 | 110 | 0.0 | 4.0 | 0.00 | 0.00 | 0.00 | 62 | 1015.9 |
| 20260905130515 | 69 | 55 | 2.0 | 4.0 | 0.00 | 0.00 | 0.00 | 62 | 1016.2 |
| 20260905130414 | 69 | 162 | 1.0 | 4.0 | 0.00 | 0.00 | 0.00 | 61 | 1016.0 |
| 20260905130314 | 69 | 197 | 0.0 | 4.0 | 0.00 | 0.00 | 0.00 | 61 | 1016.3 |
| 20260905130215 | 69 | 190 | 0.0 | 4.0 | 0.00 | 0.00 | 0.00 | 61 | 1015.7 |
| 20260905130114 | 69 | 182 | 3.0 | 4.0 | 0.00 | 0.00 | 0.00 | 61 | 1016.1 |
| 20260905130014 | 69 | 186 | 1.0 | 4.0 | 0.00 | 0.00 | 0.00 | 61 | 1016.1 |
| 20260905125914 | 69 | 206 | 1.0 | 4.0 | 0.00 | 0.00 | 0.00 | 61 | 1016.1 |
| 20260905125816 | 70 | 255 | 2.0 | 4.0 | 0.00 | 0.00 | 0.00 | 61 | 1016.0 |
| 20260905125714 | 70 | 133 | 1.0 | 4.0 | 0.00 | 0.00 | 0.00 | 61 | 1016.2 |
| 20260905125614 | 70 | 193 | 2.0 | 3.0 | 0.00 | 0.00 | 0.00 | 62 | 1015.9 |
| 20260905125550 | 70 | 242 | 0.0 | 3.0 | 0.00 | 0.00 | 0.00 | 62 | 1016.0 |
| 20260905125533 | 70 | 177 | 0.0 | 3.0 | 0.00 | 0.00 | 0.00 | 62 | 1016.2 |
| 20260905125517 | 70 | 333 | 2.0 | 3.0 | 0.00 | 0.00 | 0.00 | 62 | 1016.1 |
| 20260905125250 | 70 | 167 | 0.0 | 3.0 | 0.00 | 0.00 | 0.00 | 62 | 1015.7 |
| 20260905125235 | 70 | 187 | 1.0 | 3.0 | 0.00 | 0.00 | 0.00 | 62 | 1015.9 |
| 20260905124915 | 70 | 178 | 0.0 | 3.0 | 0.00 | 0.00 | 0.00 | 64 | 1016.1 |
| 20260905124815 | 69 | 200 | 0.0 | 3.0 | 0.00 | 0.00 | 0.00 | 64 | 1016.1 |
| 20260905124714 | 69 | 190 | 0.0 | 3.0 | 0.00 | 0.00 | 0.00 | 64 | 1016.0 |
| 20260905124615 | 69 | 192 | 0.0 | 4.0 | 0.00 | 0.00 | 0.00 | 64 | 1016.1 |
| 20260905124550 | 69 | 172 | 0.0 | 4.0 | 0.00 | 0.00 | 0.00 | 64 | 1016.0 |
| 20260905124535 | 70 | 191 | 0.0 | 4.0 | 0.00 | 0.00 | 0.00 | 64 | 1016.1 |
| 20260905124214 | 70 | 194 | 1.0 | 4.0 | 0.00 | 0.00 | 0.00 | 65 | 1016.1 |
| 20260905124151 | 69 | 184 | 1.0 | 4.0 | 0.00 | 0.00 | 0.00 | 64 | 1015.9 |
| 20260905124135 | 69 | 197 | 0.0 | 4.0 | 0.00 | 0.00 | 0.00 | 64 | 1016.1 |
| 20260905123814 | 69 | 204 | 1.0 | 4.0 | 0.00 | 0.00 | 0.00 | 64 | 1015.9 |
| 20260905123715 | 69 | 192 | 1.0 | 4.0 | 0.00 | 0.00 | 0.00 | 64 | 1016.0 |
| 20260905123614 | 69 | 206 | 2.0 | 3.0 | 0.00 | 0.00 | 0.00 | 64 | 1015.8 |
| 20260905123601 | 69 | 211 | 1.0 | 3.0 | 0.00 | 0.00 | 0.00 | 64 | 1016.1 |
| 20260905123552 | 69 | 196 | 0.0 | 3.0 | 0.00 | 0.00 | 0.00 | 65 | 1016.1 |
| 20260905123535 | 69 | 105 | 1.0 | 3.0 | 0.00 | 0.00 | 0.00 | 64 | 1016.0 |
| 20260905123519 | 69 | 204 | 0.0 | 3.0 | 0.00 | 0.00 | 0.00 | 64 | 1016.2 |
| 20260905123500 | 69 | 211 | 1.0 | 3.0 | 0.00 | 0.00 | 0.00 | 64 | 1016.1 |
| 20260905123235 | 69 | 156 | 2.0 | 3.0 | 0.00 | 0.00 | 0.00 | 64 | 1016.2 |
| 20260905122914 | 70 | 176 | 0.0 | 3.0 | 0.00 | 0.00 | 0.00 | 64 | 1015.9 |
| 20260905122815 | 70 | 57 | 0.0 | 3.0 | 0.00 | 0.00 | 0.00 | 63 | 1016.1 |
| 20260905122714 | 70 | 197 | 0.0 | 3.0 | 0.00 | 0.00 | 0.00 | 63 | 1016.2 |
| 20260905122614 | 70 | 204 | 1.0 | 3.0 | 0.00 | 0.00 | 0.00 | 63 | 1016.2 |
| 20260905122515 | 70 | 192 | 2.0 | 3.0 | 0.00 | 0.00 | 0.00 | 63 | 1016.2 |
| 20260905122414 | 70 | 50 | 1.0 | 3.0 | 0.00 | 0.00 | 0.00 | 64 | 1016.4 |
| 20260905122314 | 70 | 200 | 0.0 | 3.0 | 0.00 | 0.00 | 0.00 | 63 | 1016.0 |
| 20260905122214 | 70 | 179 | 1.0 | 3.0 | 0.00 | 0.00 | 0.00 | 62 | 1016.0 |
| 20260905122115 | 71 | 230 | 0.0 | 3.0 | 0.00 | 0.00 | 0.00 | 63 | 1016.1 |
| 20260905122014 | 71 | 187 | 1.0 | 4.0 | 0.00 | 0.00 | 0.00 | 62 | 1016.1 |
| 20260905121914 | 71 | 193 | 0.0 | 4.0 | 0.00 | 0.00 | 0.00 | 62 | 1016.2 |
| 20260905121814 | 71 | 190 | 0.0 | 4.0 | 0.00 | 0.00 | 0.00 | 63 | 1016.0 |
| 20260905121715 | 71 | 219 | 1.0 | 6.0 | 0.00 | 0.00 | 0.00 | 63 | 1016.1 |
| 20260905121614 | 71 | 145 | 1.0 | 6.0 | 0.00 | 0.00 | 0.00 | 63 | 1016.2 |
| 20260905121514 | 71 | 208 | 1.0 | 6.0 | 0.00 | 0.00 | 0.00 | 63 | 1016.4 |
| 20260905121457 | 71 | 180 | 0.0 | 6.0 | 0.00 | 0.00 | 0.00 | 63 | 1016.4 |
| 20260905121441 | 70 | 91 | 0.0 | 6.0 | 0.00 | 0.00 | 0.00 | 63 | 1016.2 |
| 20260905121215 | 70 | 213 | 2.0 | 6.0 | 0.00 | 0.00 | 0.00 | 62 | 1016.2 |
| 20260905121114 | 70 | 71 | 2.0 | 6.0 | 0.00 | 0.00 | 0.00 | 63 | 1016.2 |
| 20260905121014 | 70 | 150 | 1.0 | 6.0 | 0.00 | 0.00 | 0.00 | 63 | 1016.5 |
| 20260905120914 | 70 | 202 | 1.0 | 6.0 | 0.00 | 0.00 | 0.00 | 63 | 1016.2 |
| 20260905120814 | 71 | 202 | 0.0 | 4.0 | 0.00 | 0.00 | 0.00 | 63 | 1016.2 |
| 20260905120714 | 71 | 84 | 1.0 | 4.0 | 0.00 | 0.00 | 0.00 | 63 | 1016.4 |
| 20260905120614 | 71 | 196 | 0.0 | 4.0 | 0.00 | 0.00 | 0.00 | 63 | 1016.1 |
| 20260905120514 | 71 | 138 | 1.0 | 4.0 | 0.00 | 0.00 | 0.00 | 63 | 1016.0 |
| 20260905120414 | 71 | 232 | 1.0 | 4.0 | 0.00 | 0.00 | 0.00 | 62 | 1016.1 |
| 20260905120347 | 71 | 193 | 0.0 | 4.0 | 0.00 | 0.00 | 0.00 | 63 | 1016.1 |
| 20260905120325 | 71 | 202 | 2.0 | 4.0 | 0.00 | 0.00 | 0.00 | 62 | 1016.1 |
| 20260905120309 | 71 | 187 | 1.0 | 4.0 | 0.00 | 0.00 | 0.00 | 62 | 1016.3 |
| 20260905120253 | 71 | 186 | 0.0 | 4.0 | 0.00 | 0.00 | 0.00 | 62 | 1016.2 |
| 20260905120236 | 71 | 134 | 1.0 | 3.0 | 0.00 | 0.00 | 0.00 | 63 | 1016.1 |
| 20260905120219 | 71 | 194 | 1.0 | 3.0 | 0.00 | 0.00 | 0.00 | 62 | 1016.3 |
| 20260905115950 | 71 | 202 | 0.0 | 3.0 | 0.00 | 0.00 | 0.00 | 61 | 1016.3 |
| 20260905115411 | 72 | 191 | 1.0 | 3.0 | 0.00 | 0.00 | 0.00 | 60 | 1016.1 |
| 20260905115310 | 72 | 57 | 1.0 | 3.0 | 0.00 | 0.00 | 0.00 | 60 | 1016.2 |
| 20260905115210 | 72 | 210 | 1.0 | 3.0 | 0.00 | 0.00 | 0.00 | 60 | 1016.1 |
| 20260905115110 | 72 | 196 | 0.0 | 3.0 | 0.00 | 0.00 | 0.00 | 61 | 1016.0 |
| 20260905115010 | 72 | 358 | 2.0 | 3.0 | 0.00 | 0.00 | 0.00 | 61 | 1016.4 |
| 20260905114911 | 72 | 198 | 0.0 | 4.0 | 0.00 | 0.00 | 0.00 | 61 | 1016.1 |
| 20260905114816 | 72 | 201 | 0.0 | 4.0 | 0.00 | 0.00 | 0.00 | 61 | 1016.2 |
| 20260905114753 | 72 | 211 | 0.0 | 4.0 | 0.00 | 0.00 | 0.00 | 61 | 1016.1 |
| 20260905114737 | 72 | 204 | 0.0 | 4.0 | 0.00 | 0.00 | 0.00 | 62 | 1016.3 |
| 20260905114720 | 72 | 257 | 0.0 | 4.0 | 0.00 | 0.00 | 0.00 | 62 | 1016.0 |
| 20260905114441 | 71 | 207 | 0.0 | 4.0 | 0.00 | 0.00 | 0.00 | 62 | 1016.3 |
| 20260905114211 | 71 | 215 | 0.0 | 4.0 | 0.00 | 0.00 | 0.00 | 62 | 1016.2 |
| 20260905114110 | 71 | 182 | 0.0 | 4.0 | 0.00 | 0.00 | 0.00 | 63 | 1016.3 |
| 20260905114010 | 71 | 204 | 1.0 | 4.0 | 0.00 | 0.00 | 0.00 | 62 | 1016.2 |
| 20260905113910 | 71 | 196 | 1.0 | 4.0 | 0.00 | 0.00 | 0.00 | 63 | 1016.2 |
| 20260905113810 | 71 | 206 | 0.0 | 4.0 | 0.00 | 0.00 | 0.00 | 62 | 1016.2 |
| 20260905113710 | 71 | 120 | 2.0 | 4.0 | 0.00 | 0.00 | 0.00 | 64 | 1016.3 |
| 20260905113610 | 71 | 215 | 0.0 | 4.0 | 0.00 | 0.00 | 0.00 | 63 | 1016.1 |
| 20260905113513 | 70 | 199 | 0.0 | 4.0 | 0.00 | 0.00 | 0.00 | 64 | 1016.1 |
| 20260905113502 | 69 | 194 | 0.0 | 4.0 | 0.00 | 0.00 | 0.00 | 66 | 1016.4 |
| 20260905113453 | 69 | 10 | 2.0 | 4.0 | 0.00 | 0.00 | 0.00 | 64 | 1016.3 |
| 20260905113437 | 69 | 222 | 0.0 | 4.0 | 0.00 | 0.00 | 0.00 | 65 | 1016.2 |
| 20260905113420 | 69 | 194 | 0.0 | 4.0 | 0.00 | 0.00 | 0.00 | 66 | 1016.4 |
| 20260905113111 | 69 | 199 | 0.0 | 4.0 | 0.00 | 0.00 | 0.00 | 67 | 1016.4 |
| 20260905113010 | 69 | 51 | 2.0 | 4.0 | 0.00 | 0.00 | 0.00 | 66 | 1016.2 |
| 20260905112948 | 69 | 192 | 0.0 | 4.0 | 0.00 | 0.00 | 0.00 | 66 | 1016.2 |
| 20260905112932 | 69 | 207 | 0.0 | 4.0 | 0.00 | 0.00 | 0.00 | 66 | 1016.3 |
| 20260905112907 | 69 | 193 | 0.0 | 4.0 | 0.00 | 0.00 | 0.00 | 67 | 1016.2 |
| 20260905112851 | 68 | 180 | 0.0 | 4.0 | 0.00 | 0.00 | 0.00 | 67 | 1016.3 |
| 20260905112353 | 69 | 209 | 1.0 | 3.0 | 0.00 | 0.00 | 0.00 | 66 | 1016.3 |
| 20260905112330 | 69 | 199 | 2.0 | 3.0 | 0.00 | 0.00 | 0.00 | 65 | 1016.1 |
| 20260905112010 | 69 | 201 | 0.0 | 3.0 | 0.00 | 0.00 | 0.00 | 66 | 1016.3 |
| 20260905111911 | 69 | 155 | 0.0 | 3.0 | 0.00 | 0.00 | 0.00 | 66 | 1016.3 |
| 20260905111855 | 71 | 167 | 0.0 | 2.0 | 0.00 | 0.00 | 0.00 | 62 | 1016.0 |
| 20260905111846 | 69 | 171 | 1.0 | 3.0 | 0.00 | 0.00 | 0.00 | 66 | 1016.1 |
| 20260905111822 | 69 | 200 | 0.0 | 3.0 | 0.00 | 0.00 | 0.00 | 66 | 1016.2 |
| 20260905111807 | 70 | 204 | 0.0 | 3.0 | 0.00 | 0.00 | 0.00 | 66 | 1016.4 |
| 20260905111751 | 70 | 170 | 0.0 | 3.0 | 0.00 | 0.00 | 0.00 | 65 | 1016.3 |
| 20260905111735 | 70 | 209 | 1.0 | 3.0 | 0.00 | 0.00 | 0.00 | 65 | 1016.1 |
| 20260905111248 | 70 | 190 | 0.0 | 2.0 | 0.00 | 0.00 | 0.00 | 64 | 1016.1 |
| 20260905111232 | 71 | 189 | 0.0 | 2.0 | 0.00 | 0.00 | 0.00 | 63 | 1015.9 |
| 20260905110955 | 71 | 232 | 2.0 | 2.0 | 0.00 | 0.00 | 0.00 | 63 | 1016.1 |
| 20260905110938 | 71 | 201 | 0.0 | 2.0 | 0.00 | 0.00 | 0.00 | 62 | 1016.3 |
| 20260905110918 | 71 | 167 | 0.0 | 2.0 | 0.00 | 0.00 | 0.00 | 62 | 1016.0 |
| 20260905110609 | 71 | 210 | 1.0 | 2.0 | 0.00 | 0.00 | 0.00 | 64 | 1016.3 |
| 20260905110509 | 71 | 199 | 1.0 | 2.0 | 0.00 | 0.00 | 0.00 | 64 | 1016.2 |
| 20260905110410 | 70 | 196 | 0.0 | 4.0 | 0.00 | 0.00 | 0.00 | 64 | 1016.2 |
| 20260905110351 | 70 | 194 | 1.0 | 4.0 | 0.00 | 0.00 | 0.00 | 64 | 1016.1 |
| 20260905110329 | 70 | 203 | 0.0 | 4.0 | 0.00 | 0.00 | 0.00 | 65 | 1016.0 |
| 20260905110044 | 69 | 297 | 1.0 | 4.0 | 0.00 | 0.00 | 0.00 | 65 | 1016.1 |
| 20260905110028 | 69 | 209 | 0.0 | 4.0 | 0.00 | 0.00 | 0.00 | 65 | 1016.3 |
| 20260905105709 | 69 | 183 | 0.0 | 4.0 | 0.00 | 0.00 | 0.00 | 64 | 1016.2 |
| 20260905105609 | 69 | 339 | 0.0 | 4.0 | 0.00 | 0.00 | 0.00 | 65 | 1016.2 |
| 20260905105536 | 68 | 198 | 0.0 | 3.0 | 0.00 | 0.00 | 0.00 | 66 | 1016.1 |
| 20260905105527 | 70 | 207 | 2.0 | 4.0 | 0.00 | 0.00 | 0.00 | 65 | 1016.4 |
| 20260905105511 | 70 | 186 | 0.0 | 4.0 | 0.00 | 0.00 | 0.00 | 66 | 1016.1 |
| 20260905105454 | 69 | 131 | 0.0 | 4.0 | 0.00 | 0.00 | 0.00 | 67 | 1016.2 |
| 20260905105431 | 69 | 200 | 0.0 | 4.0 | 0.00 | 0.00 | 0.00 | 67 | 1016.1 |
| 20260905105155 | 69 | 181 | 0.0 | 4.0 | 0.00 | 0.00 | 0.00 | 68 | 1015.9 |
| 20260905105140 | 69 | 162 | 1.0 | 4.0 | 0.00 | 0.00 | 0.00 | 68 | 1016.3 |
| 20260905104856 | 68 | 198 | 0.0 | 4.0 | 0.00 | 0.00 | 0.00 | 68 | 1016.3 |
| 20260905104840 | 68 | 214 | 1.0 | 4.0 | 0.00 | 0.00 | 0.00 | 68 | 1016.3 |
| 20260905104824 | 68 | 16 | 3.0 | 4.0 | 0.00 | 0.00 | 0.00 | 67 | 1016.0 |
| 20260905104808 | 68 | 116 | 1.0 | 3.0 | 0.00 | 0.00 | 0.00 | 66 | 1016.1 |
| 20260905104753 | 68 | 204 | 0.0 | 3.0 | 0.00 | 0.00 | 0.00 | 66 | 1016.1 |
| 20260905104306 | 69 | 169 | 0.0 | 4.0 | 0.00 | 0.00 | 0.00 | 66 | 1016.3 |
| 20260905104250 | 69 | 182 | 2.0 | 4.0 | 0.00 | 0.00 | 0.00 | 66 | 1016.4 |
| 20260905103745 | 69 | 192 | 0.0 | 4.0 | 0.00 | 0.00 | 0.00 | 67 | 1016.2 |
| 20260905103729 | 68 | 278 | 2.0 | 4.0 | 0.00 | 0.00 | 0.00 | 68 | 1016.4 |
| 20260905103409 | 68 | 181 | 1.0 | 4.0 | 0.00 | 0.00 | 0.00 | 68 | 1016.2 |
| 20260905103311 | 67 | 194 | 0.0 | 4.0 | 0.00 | 0.00 | 0.00 | 69 | 1016.1 |
| 20260905103246 | 67 | 39 | 1.0 | 4.0 | 0.00 | 0.00 | 0.00 | 69 | 1016.1 |
| 20260905103230 | 67 | 54 | 0.0 | 3.0 | 0.00 | 0.00 | 0.00 | 69 | 1016.2 |
| 20260905102953 | 67 | 124 | 2.0 | 6.0 | 0.00 | 0.00 | 0.00 | 69 | 1016.1 |
| 20260905102937 | 67 | 198 | 0.0 | 6.0 | 0.00 | 0.00 | 0.00 | 69 | 1016.0 |
| 20260905102709 | 66 | 194 | 0.0 | 6.0 | 0.00 | 0.00 | 0.00 | 69 | 1016.0 |
| 20260905102610 | 66 | 182 | 0.0 | 6.0 | 0.00 | 0.00 | 0.00 | 69 | 1016.1 |
| 20260905102510 | 66 | 160 | 0.0 | 6.0 | 0.00 | 0.00 | 0.00 | 69 | 1016.2 |
| 20260905102410 | 66 | 188 | 0.0 | 6.0 | 0.00 | 0.00 | 0.00 | 69 | 1016.3 |
| 20260905102358 | 67 | 69 | 2.0 | 4.0 | 0.00 | 0.00 | 0.00 | 70 | 1016.2 |
| 20260905102352 | 69 | 80 | 0.0 | 4.0 | 0.00 | 0.00 | 0.00 | 68 | 1016.1 |
| 20260905102347 | 71 | 184 | 2.0 | 4.0 | 0.00 | 0.00 | 0.00 | 66 | 1015.9 |
| 20260905102343 | 71 | 124 | 0.0 | 18.0 | 0.00 | 0.00 | 0.00 | 67 | 1016.3 |
| 20260905102335 | 66 | 283 | 0.0 | 6.0 | 0.00 | 0.00 | 0.00 | 68 | 1016.0 |
| 20260905102312 | 66 | 12 | 1.0 | 6.0 | 0.00 | 0.00 | 0.00 | 68 | 1016.2 |
| 20260905102257 | 66 | 50 | 1.0 | 4.0 | 0.00 | 0.00 | 0.00 | 68 | 1016.2 |
| 20260905102241 | 67 | 183 | 0.0 | 4.0 | 0.00 | 0.00 | 0.00 | 69 | 1016.2 |
| 20260905102224 | 67 | 204 | 2.0 | 3.0 | 0.00 | 0.00 | 0.00 | 70 | 1016.4 |
| 20260905102208 | 67 | 188 | 0.0 | 2.0 | 0.00 | 0.00 | 0.00 | 71 | 1016.1 |
| 20260905102143 | 67 | 193 | 0.0 | 3.0 | 0.00 | 0.00 | 0.00 | 71 | 1016.2 |
| 20260905102127 | 67 | 201 | 0.0 | 3.0 | 0.00 | 0.00 | 0.00 | 71 | 1016.1 |
| 20260905102111 | 66 | 108 | 0.0 | 3.0 | 0.00 | 0.00 | 0.00 | 71 | 1016.2 |
| 20260905101609 | 66 | 114 | 0.0 | 3.0 | 0.00 | 0.00 | 0.00 | 72 | 1016.3 |
| 20260905101113 | 66 | 201 | 1.0 | 3.0 | 0.00 | 0.00 | 0.00 | 71 | 1016.2 |
| 20260905101057 | 66 | 194 | 0.0 | 3.0 | 0.00 | 0.00 | 0.00 | 71 | 1016.1 |
| 20260905101033 | 66 | 202 | 0.0 | 4.0 | 0.00 | 0.00 | 0.00 | 71 | 1016.2 |
| 20260905101016 | 66 | 194 | 0.0 | 4.0 | 0.00 | 0.00 | 0.00 | 71 | 1016.0 |
| 20260905101000 | 66 | 207 | 2.0 | 4.0 | 0.00 | 0.00 | 0.00 | 71 | 1016.1 |
| 20260905100944 | 66 | 200 | 2.0 | 4.0 | 0.00 | 0.00 | 0.00 | 71 | 1016.2 |
| 20260905100928 | 67 | 205 | 0.0 | 4.0 | 0.00 | 0.00 | 0.00 | 71 | 1015.8 |
| 20260905100911 | 67 | 69 | 2.0 | 4.0 | 0.00 | 0.00 | 0.00 | 70 | 1016.2 |
| 20260905100645 | 67 | 192 | 0.0 | 4.0 | 0.00 | 0.00 | 0.00 | 70 | 1015.9 |
| 20260905100409 | 67 | 182 | 1.0 | 4.0 | 0.00 | 0.00 | 0.00 | 70 | 1016.1 |
| 20260905095920 | 68 | 192 | 0.0 | 4.0 | 0.00 | 0.00 | 0.00 | 69 | 1016.0 |
| 20260905095903 | 68 | 54 | 2.0 | 4.0 | 0.00 | 0.00 | 0.00 | 69 | 1015.9 |
| 20260905095406 | 68 | 182 | 0.0 | 9.0 | 0.00 | 0.00 | 0.00 | 69 | 1016.2 |
| 20260905095343 | 68 | 191 | 0.0 | 9.0 | 0.00 | 0.00 | 0.00 | 68 | 1016.1 |
| 20260905095326 | 68 | 190 | 0.0 | 9.0 | 0.00 | 0.00 | 0.00 | 68 | 1016.2 |
| 20260905095310 | 68 | 224 | 1.0 | 9.0 | 0.00 | 0.00 | 0.00 | 68 | 1016.1 |
| 20260905095255 | 68 | 352 | 1.0 | 9.0 | 0.00 | 0.00 | 0.00 | 67 | 1016.0 |
| 20260905095010 | 69 | 245 | 1.0 | 9.0 | 0.00 | 0.00 | 0.00 | 67 | 1016.1 |
| 20260905094953 | 69 | 245 | 0.0 | 9.0 | 0.00 | 0.00 | 0.00 | 67 | 1015.9 |
| 20260905094937 | 69 | 6 | 1.0 | 4.0 | 0.00 | 0.00 | 0.00 | 67 | 1016.0 |
| 20260905094921 | 69 | 248 | 1.0 | 4.0 | 0.00 | 0.00 | 0.00 | 67 | 1015.9 |
| 20260905094642 | 69 | 80 | 0.0 | 4.0 | 0.00 | 0.00 | 0.00 | 68 | 1016.1 |
| 20260905094416 | 69 | 277 | 2.0 | 4.0 | 0.00 | 0.00 | 0.00 | 68 | 1015.6 |
| 20260905094400 | 69 | 178 | 1.0 | 4.0 | 0.00 | 0.00 | 0.00 | 68 | 1016.3 |
| 20260905094344 | 70 | 112 | 1.0 | 4.0 | 0.00 | 0.00 | 0.00 | 67 | 1015.8 |
| 20260905094328 | 70 | 185 | 2.0 | 4.0 | 0.00 | 0.00 | 0.00 | 66 | 1016.1 |
| 20260905094309 | 71 | 184 | 2.0 | 4.0 | 0.00 | 0.00 | 0.00 | 66 | 1015.9 |
| 20260905094043 | 71 | 204 | 0.0 | 4.0 | 0.00 | 0.00 | 0.00 | 66 | 1015.9 |
| 20260905094027 | 71 | 215 | 1.0 | 18.0 | 0.00 | 0.00 | 0.00 | 66 | 1016.1 |
| 20260905093320 | 71 | 231 | 1.0 | 18.0 | 0.00 | 0.00 | 0.00 | 65 | 1016.1 |
| 20260905093303 | 71 | 208 | 1.0 | 18.0 | 0.00 | 0.00 | 0.00 | 65 | 1015.8 |
| 20260905093248 | 71 | 330 | 0.0 | 18.0 | 0.00 | 0.00 | 0.00 | 65 | 1016.1 |
| 20260905093232 | 71 | 228 | 1.0 | 18.0 | 0.00 | 0.00 | 0.00 | 66 | 1016.3 |
| 20260905093216 | 71 | 183 | 1.0 | 18.0 | 0.00 | 0.00 | 0.00 | 66 | 1016.1 |
| 20260905093157 | 71 | 124 | 0.0 | 18.0 | 0.00 | 0.00 | 0.00 | 67 | 1016.3 |
| 20260905092932 | 71 | 213 | 9.0 | 18.0 | 0.00 | 0.00 | 0.00 | 66 | 1015.8 |
| 20260905092916 | 71 | 325 | 2.0 | 7.0 | 0.00 | 0.00 | 0.00 | 68 | 1016.1 |
| 20260905092209 | 70 | 208 | 1.0 | 7.0 | 0.00 | 0.00 | 0.00 | 69 | 1016.0 |
| 20260905092108 | 69 | 188 | 1.0 | 7.0 | 0.00 | 0.00 | 0.00 | 70 | 1016.3 |
| 20260905092009 | 69 | 163 | 1.0 | 7.0 | 0.00 | 0.00 | 0.00 | 70 | 1016.3 |
| 20260905091909 | 69 | 176 | 0.0 | 7.0 | 0.00 | 0.00 | 0.00 | 69 | 1016.1 |
| 20260905091809 | 70 | 175 | 0.0 | 7.0 | 0.00 | 0.00 | 0.00 | 69 | 1016.2 |
| 20260905091710 | 70 | 170 | 2.0 | 7.0 | 0.00 | 0.00 | 0.00 | 68 | 1016.1 |
| 20260905091611 | 71 | 221 | 1.0 | 7.0 | 0.00 | 0.00 | 0.00 | 68 | 1016.1 |
| 20260905091509 | 71 | 175 | 0.0 | 7.0 | 0.00 | 0.00 | 0.00 | 67 | 1016.2 |
| 20260905091409 | 71 | 175 | 2.0 | 7.0 | 0.00 | 0.00 | 0.00 | 67 | 1016.0 |
| 20260905091308 | 70 | 339 | 1.0 | 7.0 | 0.00 | 0.00 | 0.00 | 68 | 1016.4 |
| 20260905091209 | 70 | 191 | 1.0 | 7.0 | 0.00 | 0.00 | 0.00 | 68 | 1016.3 |
| 20260905091109 | 70 | 155 | 1.0 | 7.0 | 0.00 | 0.00 | 0.00 | 68 | 1016.2 |
| 20260905091009 | 71 | 190 | 1.0 | 7.0 | 0.00 | 0.00 | 0.00 | 69 | 1015.9 |
| 20260905090909 | 71 | 196 | 1.0 | 7.0 | 0.00 | 0.00 | 0.00 | 69 | 1016.0 |
| 20260905090816 | 67 | 201 | 2.0 | 4.0 | 0.00 | 0.00 | 0.00 | 73 | 1016.3 |
| 20260905090810 | 70 | 272 | 2.0 | 7.0 | 0.00 | 0.00 | 0.00 | 69 | 1016.1 |
| 20260905090746 | 69 | 196 | 1.0 | 4.0 | 0.00 | 0.00 | 0.00 | 70 | 1015.9 |
| 20260905090730 | 69 | 226 | 0.0 | 4.0 | 0.00 | 0.00 | 0.00 | 71 | 1015.9 |
| 20260905090453 | 68 | 191 | 1.0 | 4.0 | 0.00 | 0.00 | 0.00 | 72 | 1016.1 |
| 20260905090437 | 68 | 199 | 0.0 | 4.0 | 0.00 | 0.00 | 0.00 | 72 | 1016.3 |
| 20260905090419 | 67 | 201 | 2.0 | 4.0 | 0.00 | 0.00 | 0.00 | 73 | 1016.3 |
| 20260905090109 | 67 | 205 | 1.0 | 4.0 | 0.00 | 0.00 | 0.00 | 73 | 1016.3 |
| 20260905090009 | 67 | 200 | 0.0 | 4.0 | 0.00 | 0.00 | 0.00 | 73 | 1016.1 |
| 20260905085909 | 67 | 167 | 1.0 | 4.0 | 0.00 | 0.00 | 0.00 | 73 | 1016.1 |
| 20260905085809 | 67 | 268 | 2.0 | 4.0 | 0.00 | 0.00 | 0.00 | 73 | 1016.2 |
| 20260905085709 | 67 | 200 | 0.0 | 4.0 | 0.00 | 0.00 | 0.00 | 73 | 1016.2 |
| 20260905085610 | 67 | 198 | 0.0 | 4.0 | 0.00 | 0.00 | 0.00 | 73 | 1015.8 |
| 20260905085541 | 67 | 158 | 0.0 | 4.0 | 0.00 | 0.00 | 0.00 | 73 | 1016.1 |
| 20260905085526 | 67 | 180 | 0.0 | 4.0 | 0.00 | 0.00 | 0.00 | 74 | 1016.1 |
| 20260905085509 | 66 | 177 | 0.0 | 4.0 | 0.00 | 0.00 | 0.00 | 75 | 1016.1 |
| 20260905085242 | 66 | 209 | 1.0 | 4.0 | 0.00 | 0.00 | 0.00 | 75 | 1015.8 |
| 20260905085226 | 67 | 85 | 0.0 | 4.0 | 0.00 | 0.00 | 0.00 | 75 | 1016.5 |
| 20260905085210 | 67 | 194 | 0.0 | 2.0 | 0.00 | 0.00 | 0.00 | 75 | 1016.0 |
| 20260905084935 | 67 | 192 | 0.0 | 1.0 | 0.00 | 0.00 | 0.00 | 76 | 1016.2 |
| 20260905084708 | 67 | 181 | 1.0 | 1.0 | 0.00 | 0.00 | 0.00 | 76 | 1016.0 |
| 20260905084251 | 67 | 198 | 1.0 | 4.0 | 0.00 | 0.00 | 0.00 | 76 | 1016.2 |
| 20260905084152 | 67 | 201 | 0.0 | 4.0 | 0.00 | 0.00 | 0.00 | 77 | 1015.9 |
| 20260905084051 | 67 | 178 | 0.0 | 4.0 | 0.00 | 0.00 | 0.00 | 77 | 1015.9 |
| 20260905083952 | 67 | 181 | 0.0 | 4.0 | 0.00 | 0.00 | 0.00 | 77 | 1015.9 |
| 20260905083851 | 67 | 191 | 0.0 | 4.0 | 0.00 | 0.00 | 0.00 | 78 | 1015.7 |
| 20260905083751 | 67 | 212 | 2.0 | 4.0 | 0.00 | 0.00 | 0.00 | 77 | 1016.0 |
| 20260905083651 | 67 | 203 | 0.0 | 3.0 | 0.00 | 0.00 | 0.00 | 77 | 1015.9 |
| 20260905083552 | 67 | 176 | 0.0 | 3.0 | 0.00 | 0.00 | 0.00 | 77 | 1015.7 |
| 20260905083451 | 68 | 202 | 0.0 | 4.0 | 0.00 | 0.00 | 0.00 | 77 | 1015.9 |
| 20260905083352 | 68 | 195 | 0.0 | 4.0 | 0.00 | 0.00 | 0.00 | 77 | 1016.0 |
| 20260905083342 | 68 | 200 | 0.0 | 6.0 | 0.00 | 0.00 | 0.00 | 75 | 1016.0 |
| 20260905083326 | 68 | 249 | 2.0 | 4.0 | 0.00 | 0.00 | 0.00 | 77 | 1015.6 |
| 20260905083309 | 68 | 191 | 0.0 | 6.0 | 0.00 | 0.00 | 0.00 | 77 | 1015.6 |
| 20260905083254 | 68 | 147 | 0.0 | 6.0 | 0.00 | 0.00 | 0.00 | 76 | 1015.5 |
| 20260905083018 | 68 | 204 | 0.0 | 6.0 | 0.00 | 0.00 | 0.00 | 75 | 1016.0 |
| 20260905083001 | 68 | 200 | 0.0 | 6.0 | 0.00 | 0.00 | 0.00 | 75 | 1016.0 |
| 20260905082651 | 68 | 183 | 0.0 | 6.0 | 0.00 | 0.00 | 0.00 | 75 | 1015.8 |
| 20260905082626 | 69 | 223 | 0.0 | 6.0 | 0.00 | 0.00 | 0.00 | 76 | 1015.8 |
| 20260905082611 | 69 | 202 | 0.0 | 6.0 | 0.00 | 0.00 | 0.00 | 77 | 1015.8 |
| 20260905082554 | 69 | 192 | 0.0 | 6.0 | 0.00 | 0.00 | 0.00 | 76 | 1015.8 |
| 20260905082327 | 69 | 218 | 0.0 | 6.0 | 0.00 | 0.00 | 0.00 | 76 | 1015.7 |
| 20260905082311 | 68 | 207 | 0.0 | 1.0 | 0.00 | 0.00 | 0.00 | 77 | 1015.8 |
| 20260905081951 | 68 | 200 | 0.0 | 1.0 | 0.00 | 0.00 | 0.00 | 76 | 1015.8 |
| 20260905081851 | 68 | 198 | 0.0 | 2.0 | 0.00 | 0.00 | 0.00 | 77 | 1015.9 |
| 20260905081752 | 68 | 198 | 0.0 | 2.0 | 0.00 | 0.00 | 0.00 | 77 | 1015.7 |
| 20260905081651 | 68 | 200 | 0.0 | 2.0 | 0.00 | 0.00 | 0.00 | 77 | 1015.6 |
| 20260905081626 | 67 | 138 | 0.0 | 2.0 | 0.00 | 0.00 | 0.00 | 78 | 1015.7 |
| 20260905081610 | 67 | 212 | 1.0 | 2.0 | 0.00 | 0.00 | 0.00 | 79 | 1015.7 |
| 20260905081315 | 67 | 205 | 0.0 | 2.0 | 0.00 | 0.00 | 0.00 | 80 | 1015.9 |
| 20260905081259 | 66 | 200 | 0.0 | 2.0 | 0.00 | 0.00 | 0.00 | 80 | 1016.0 |
| 20260905080939 | 66 | 183 | 1.0 | 2.0 | 0.00 | 0.00 | 0.00 | 80 | 1015.8 |
| 20260905080916 | 66 | 206 | 0.0 | 2.0 | 0.00 | 0.00 | 0.00 | 80 | 1015.9 |
| 20260905080854 | 66 | 193 | 0.0 | 2.0 | 0.00 | 0.00 | 0.00 | 81 | 1016.0 |
| 20260905080836 | 66 | 197 | 0.0 | 2.0 | 0.00 | 0.00 | 0.00 | 80 | 1016.0 |
| 20260905080601 | 66 | 179 | 0.0 | 2.0 | 0.00 | 0.00 | 0.00 | 81 | 1015.8 |
| 20260905080239 | 65 | 199 | 0.0 | 2.0 | 0.00 | 0.00 | 0.00 | 82 | 1015.9 |
| 20260905080139 | 65 | 194 | 0.0 | 2.0 | 0.00 | 0.00 | 0.00 | 82 | 1015.9 |
| 20260905080039 | 64 | 200 | 0.0 | 2.0 | 0.00 | 0.00 | 0.00 | 83 | 1016.0 |
| 20260905075938 | 64 | 206 | 0.0 | 2.0 | 0.00 | 0.00 | 0.00 | 84 | 1016.0 |
| 20260905075839 | 64 | 207 | 1.0 | 2.0 | 0.00 | 0.00 | 0.00 | 84 | 1016.0 |
| 20260905075738 | 64 | 196 | 0.0 | 2.0 | 0.00 | 0.00 | 0.00 | 84 | 1015.9 |
| 20260905075640 | 64 | 203 | 0.0 | 2.0 | 0.00 | 0.00 | 0.00 | 84 | 1015.7 |
| 20260905075540 | 64 | 198 | 0.0 | 2.0 | 0.00 | 0.00 | 0.00 | 84 | 1015.9 |
| 20260905075438 | 64 | 198 | 0.0 | 2.0 | 0.00 | 0.00 | 0.00 | 84 | 1016.2 |
| 20260905075414 | 64 | 205 | 0.0 | 2.0 | 0.00 | 0.00 | 0.00 | 84 | 1016.1 |
| 20260905075352 | 64 | 175 | 0.0 | 2.0 | 0.00 | 0.00 | 0.00 | 84 | 1015.9 |
| 20260905075336 | 64 | 199 | 0.0 | 2.0 | 0.00 | 0.00 | 0.00 | 84 | 1016.0 |
| 20260905075100 | 63 | 208 | 0.0 | 2.0 | 0.00 | 0.00 | 0.00 | 84 | 1016.0 |
| 20260905074738 | 64 | 205 | 1.0 | 4.0 | 0.00 | 0.00 | 0.00 | 85 | 1016.1 |
| 20260905074639 | 64 | 182 | 0.0 | 4.0 | 0.00 | 0.00 | 0.00 | 85 | 1016.0 |
| 20260905074540 | 63 | 191 | 0.0 | 4.0 | 0.00 | 0.00 | 0.00 | 86 | 1016.2 |
| 20260905074444 | 63 | 200 | 0.0 | 4.0 | 0.00 | 0.00 | 0.00 | 86 | 1016.1 |
| 20260905074429 | 63 | 215 | 0.0 | 4.0 | 0.00 | 0.00 | 0.00 | 87 | 1016.0 |
| 20260905074405 | 62 | 204 | 0.0 | 4.0 | 0.00 | 0.00 | 0.00 | 87 | 1015.8 |
| 20260905074039 | 61 | 196 | 0.0 | 4.0 | 0.00 | 0.00 | 0.00 | 88 | 1015.9 |
| 20260905073939 | 61 | 199 | 0.0 | 4.0 | 0.00 | 0.00 | 0.00 | 88 | 1016.0 |
| 20260905073839 | 61 | 208 | 1.0 | 3.0 | 0.00 | 0.00 | 0.00 | 88 | 1015.8 |
| 20260905073740 | 61 | 199 | 0.0 | 3.0 | 0.00 | 0.00 | 0.00 | 88 | 1015.8 |
| 20260905073715 | 61 | 199 | 0.0 | 3.0 | 0.00 | 0.00 | 0.00 | 89 | 1015.9 |
| 20260905073659 | 61 | 198 | 0.0 | 3.0 | 0.00 | 0.00 | 0.00 | 89 | 1015.8 |
| 20260905073339 | 61 | 247 | 0.0 | 3.0 | 0.00 | 0.00 | 0.00 | 89 | 1015.9 |
| 20260905073239 | 61 | 143 | 0.0 | 3.0 | 0.00 | 0.00 | 0.00 | 89 | 1015.8 |
| 20260905073140 | 61 | 190 | 1.0 | 3.0 | 0.00 | 0.00 | 0.00 | 89 | 1015.7 |
| 20260905073039 | 61 | 194 | 0.0 | 3.0 | 0.00 | 0.00 | 0.00 | 88 | 1015.9 |
| 20260905072940 | 61 | 236 | 0.0 | 1.0 | 0.00 | 0.00 | 0.00 | 88 | 1016.0 |
| 20260905072840 | 61 | 196 | 0.0 | 1.0 | 0.00 | 0.00 | 0.00 | 89 | 1015.8 |
| 20260905072739 | 61 | 197 | 0.0 | 1.0 | 0.00 | 0.00 | 0.00 | 89 | 1015.8 |
| 20260905072639 | 61 | 199 | 0.0 | 2.0 | 0.00 | 0.00 | 0.00 | 89 | 1015.9 |
| 20260905072614 | 60 | 200 | 0.0 | 2.0 | 0.00 | 0.00 | 0.00 | 90 | 1015.7 |
| 20260905072610 | 60 | 198 | 0.0 | 3.0 | 0.00 | 0.00 | 0.00 | 91 | 1015.6 |
| 20260905072602 | 61 | 191 | 0.0 | 2.0 | 0.00 | 0.00 | 0.00 | 89 | 1015.9 |
| 20260905072546 | 60 | 194 | 0.0 | 2.0 | 0.00 | 0.00 | 0.00 | 89 | 1016.0 |
| 20260905072530 | 60 | 202 | 0.0 | 2.0 | 0.00 | 0.00 | 0.00 | 89 | 1015.9 |
| 20260905072508 | 60 | 200 | 0.0 | 2.0 | 0.00 | 0.00 | 0.00 | 89 | 1016.0 |
| 20260905072452 | 60 | 187 | 0.0 | 2.0 | 0.00 | 0.00 | 0.00 | 89 | 1016.0 |
| 20260905072215 | 60 | 200 | 0.0 | 2.0 | 0.00 | 0.00 | 0.00 | 89 | 1016.0 |
| 20260905072158 | 60 | 196 | 0.0 | 2.0 | 0.00 | 0.00 | 0.00 | 89 | 1015.7 |
| 20260905072141 | 60 | 200 | 0.0 | 2.0 | 0.00 | 0.00 | 0.00 | 90 | 1015.7 |
| 20260905071913 | 60 | 199 | 0.0 | 1.0 | 0.00 | 0.00 | 0.00 | 90 | 1015.7 |
| 20260905071857 | 60 | 192 | 0.0 | 1.0 | 0.00 | 0.00 | 0.00 | 90 | 1015.8 |
| 20260905071841 | 60 | 207 | 0.0 | 1.0 | 0.00 | 0.00 | 0.00 | 90 | 1015.7 |
| 20260905071825 | 60 | 199 | 0.0 | 1.0 | 0.00 | 0.00 | 0.00 | 90 | 1015.8 |
| 20260905071557 | 60 | 194 | 0.0 | 1.0 | 0.00 | 0.00 | 0.00 | 90 | 1015.8 |
| 20260905071321 | 60 | 194 | 0.0 | 2.0 | 0.00 | 0.00 | 0.00 | 90 | 1015.8 |
| 20260905071306 | 60 | 192 | 0.0 | 3.0 | 0.00 | 0.00 | 0.00 | 90 | 1015.8 |
| 20260905071027 | 60 | 198 | 0.0 | 3.0 | 0.00 | 0.00 | 0.00 | 91 | 1015.6 |
| 20260905070758 | 60 | 198 | 0.0 | 3.0 | 0.00 | 0.00 | 0.00 | 91 | 1015.6 |
| 20260905070439 | 60 | 209 | 0.0 | 3.0 | 0.00 | 0.00 | 0.00 | 91 | 1015.5 |
| 20260905070339 | 59 | 196 | 0.0 | 3.0 | 0.00 | 0.00 | 0.00 | 91 | 1015.6 |
| 20260905070315 | 59 | 201 | 0.0 | 3.0 | 0.00 | 0.00 | 0.00 | 91 | 1015.6 |
| 20260905070259 | 59 | 209 | 0.0 | 3.0 | 0.00 | 0.00 | 0.00 | 91 | 1015.7 |
| 20260905065938 | 59 | 192 | 0.0 | 1.0 | 0.00 | 0.00 | 0.00 | 91 | 1015.7 |
| 20260905065840 | 59 | 197 | 0.0 | 1.0 | 0.00 | 0.00 | 0.00 | 91 | 1015.6 |
| 20260905065818 | 59 | 194 | 0.0 | 0.0 | 0.00 | 0.00 | 0.00 | 91 | 1015.5 |
| 20260905065800 | 59 | 191 | 0.0 | 0.0 | 0.00 | 0.00 | 0.00 | 91 | 1015.8 |
| 20260905065522 | 59 | 198 | 0.0 | 1.0 | 0.00 | 0.00 | 0.00 | 91 | 1015.4 |
| 20260905065506 | 59 | 200 | 0.0 | 1.0 | 0.00 | 0.00 | 0.00 | 91 | 1015.4 |
| 20260905065240 | 59 | 200 | 0.0 | 1.0 | 0.00 | 0.00 | 0.00 | 91 | 1015.5 |
| 20260905065139 | 59 | 199 | 0.0 | 1.0 | 0.00 | 0.00 | 0.00 | 91 | 1015.3 |
| 20260905065040 | 59 | 196 | 0.0 | 1.0 | 0.00 | 0.00 | 0.00 | 91 | 1015.3 |
| 20260905064939 | 59 | 200 | 0.0 | 2.0 | 0.00 | 0.00 | 0.00 | 91 | 1015.5 |
| 20260905064839 | 59 | 201 | 0.0 | 2.0 | 0.00 | 0.00 | 0.00 | 91 | 1015.2 |
| 20260905064739 | 59 | 196 | 0.0 | 2.0 | 0.00 | 0.00 | 0.00 | 91 | 1015.5 |
| 20260905064638 | 59 | 196 | 0.0 | 2.0 | 0.00 | 0.00 | 0.00 | 91 | 1015.2 |
| 20260905064538 | 59 | 189 | 0.0 | 2.0 | 0.00 | 0.00 | 0.00 | 91 | 1015.5 |
| 20260905064438 | 59 | 194 | 0.0 | 2.0 | 0.00 | 0.00 | 0.00 | 91 | 1015.6 |
| 20260905064414 | 59 | 198 | 0.0 | 1.0 | 0.00 | 0.00 | 0.00 | 92 | 1015.4 |
| 20260905064406 | 59 | 196 | 0.0 | 2.0 | 0.00 | 0.00 | 0.00 | 91 | 1015.3 |
| 20260905064344 | 59 | 192 | 0.0 | 2.0 | 0.00 | 0.00 | 0.00 | 91 | 1015.3 |
| 20260905064328 | 59 | 198 | 0.0 | 2.0 | 0.00 | 0.00 | 0.00 | 91 | 1015.5 |
| 20260905064312 | 59 | 199 | 0.0 | 2.0 | 0.00 | 0.00 | 0.00 | 91 | 1015.4 |
| 20260905064257 | 59 | 196 | 0.0 | 1.0 | 0.00 | 0.00 | 0.00 | 91 | 1015.5 |
| 20260905064241 | 59 | 204 | 0.0 | 1.0 | 0.00 | 0.00 | 0.00 | 91 | 1015.3 |
| 20260905064219 | 59 | 199 | 0.0 | 1.0 | 0.00 | 0.00 | 0.00 | 91 | 1015.4 |
| 20260905063708 | 59 | 198 | 0.0 | 1.0 | 0.00 | 0.00 | 0.00 | 91 | 1015.3 |
| 20260905063426 | 59 | 197 | 0.0 | 1.0 | 0.00 | 0.00 | 0.00 | 92 | 1015.4 |
| 20260905063202 | 59 | 195 | 0.0 | 1.0 | 0.00 | 0.00 | 0.00 | 92 | 1015.5 |
| 20260905063147 | 59 | 181 | 0.0 | 0.0 | 0.00 | 0.00 | 0.00 | 91 | 1015.5 |
| 20260905063131 | 59 | 197 | 0.0 | 1.0 | 0.00 | 0.00 | 0.00 | 91 | 1015.2 |
| 20260905063115 | 59 | 200 | 0.0 | 1.0 | 0.00 | 0.00 | 0.00 | 92 | 1015.5 |
| 20260905063056 | 59 | 198 | 0.0 | 1.0 | 0.00 | 0.00 | 0.00 | 92 | 1015.4 |
| 20260905062527 | 59 | 193 | 0.0 | 1.0 | 0.00 | 0.00 | 0.00 | 92 | 1015.3 |
| 20260905062426 | 59 | 191 | 0.0 | 1.0 | 0.00 | 0.00 | 0.00 | 92 | 1015.2 |
| 20260905062327 | 59 | 202 | 0.0 | 1.0 | 0.00 | 0.00 | 0.00 | 92 | 1015.0 |
| 20260905062228 | 59 | 195 | 0.0 | 1.0 | 0.00 | 0.00 | 0.00 | 92 | 1015.3 |
| 20260905062126 | 59 | 192 | 0.0 | 1.0 | 0.00 | 0.00 | 0.00 | 92 | 1015.3 |
| 20260905062026 | 59 | 200 | 0.0 | 1.0 | 0.00 | 0.00 | 0.00 | 92 | 1015.1 |
| 20260905061926 | 59 | 195 | 0.0 | 1.0 | 0.00 | 0.00 | 0.00 | 92 | 1015.2 |
| 20260905061826 | 59 | 198 | 0.0 | 1.0 | 0.00 | 0.00 | 0.00 | 92 | 1015.2 |
| 20260905061726 | 59 | 197 | 0.0 | 0.0 | 0.00 | 0.00 | 0.00 | 92 | 1015.1 |
| 20260905061702 | 59 | 197 | 0.0 | 0.0 | 0.00 | 0.00 | 0.00 | 92 | 1015.1 |
| 20260905061646 | 59 | 198 | 0.0 | 0.0 | 0.00 | 0.00 | 0.00 | 92 | 1015.3 |
| 20260905061326 | 59 | 198 | 0.0 | 0.0 | 0.00 | 0.00 | 0.00 | 92 | 1015.0 |
| 20260905061301 | 59 | 197 | 0.0 | 2.0 | 0.00 | 0.00 | 0.00 | 92 | 1015.1 |
| 20260905061245 | 59 | 198 | 0.0 | 1.0 | 0.00 | 0.00 | 0.00 | 92 | 1015.1 |
| 20260905061228 | 59 | 198 | 0.0 | 1.0 | 0.00 | 0.00 | 0.00 | 92 | 1015.1 |
| 20260905061213 | 59 | 200 | 0.0 | 1.0 | 0.00 | 0.00 | 0.00 | 92 | 1014.7 |
| 20260905060937 | 59 | 200 | 0.0 | 2.0 | 0.00 | 0.00 | 0.00 | 92 | 1014.8 |
| 20260905060913 | 59 | 194 | 0.0 | 2.0 | 0.00 | 0.00 | 0.00 | 92 | 1015.1 |
| 20260905060857 | 59 | 195 | 0.0 | 2.0 | 0.00 | 0.00 | 0.00 | 92 | 1014.8 |
| 20260905060842 | 59 | 193 | 0.0 | 2.0 | 0.00 | 0.00 | 0.00 | 92 | 1015.0 |
| 20260905060826 | 59 | 194 | 0.0 | 2.0 | 0.00 | 0.00 | 0.00 | 92 | 1015.1 |
| 20260905060810 | 59 | 195 | 0.0 | 2.0 | 0.00 | 0.00 | 0.00 | 92 | 1015.1 |
| 20260905060751 | 59 | 197 | 0.0 | 2.0 | 0.00 | 0.00 | 0.00 | 92 | 1015.1 |
| 20260905060305 | 59 | 197 | 0.0 | 2.0 | 0.00 | 0.00 | 0.00 | 91 | 1015.0 |
| 20260905060249 | 59 | 202 | 0.0 | 2.0 | 0.00 | 0.00 | 0.00 | 91 | 1015.1 |
| 20260905060234 | 59 | 200 | 0.0 | 1.0 | 0.00 | 0.00 | 0.00 | 92 | 1015.1 |
| 20260905060209 | 59 | 203 | 0.0 | 1.0 | 0.00 | 0.00 | 0.00 | 91 | 1015.1 |
| 20260905055712 | 59 | 199 | 0.0 | 1.0 | 0.00 | 0.00 | 0.00 | 91 | 1015.2 |
| 20260905055226 | 59 | 200 | 0.0 | 1.0 | 0.00 | 0.00 | 0.00 | 91 | 1014.9 |
| 20260905055203 | 59 | 175 | 0.0 | 0.0 | 0.00 | 0.00 | 0.00 | 91 | 1014.8 |
| 20260905055155 | 59 | 202 | 0.0 | 1.0 | 0.00 | 0.00 | 0.00 | 91 | 1014.8 |
| 20260905055140 | 59 | 198 | 0.0 | 1.0 | 0.00 | 0.00 | 0.00 | 91 | 1014.7 |
| 20260905055124 | 59 | 199 | 0.0 | 1.0 | 0.00 | 0.00 | 0.00 | 91 | 1014.8 |
| 20260905055108 | 59 | 198 | 0.0 | 1.0 | 0.00 | 0.00 | 0.00 | 91 | 1014.8 |
| 20260905054839 | 59 | 199 | 0.0 | 1.0 | 0.00 | 0.00 | 0.00 | 91 | 1014.9 |
| 20260905054824 | 59 | 199 | 0.0 | 1.0 | 0.00 | 0.00 | 0.00 | 91 | 1014.5 |
| 20260905054808 | 59 | 201 | 0.0 | 1.0 | 0.00 | 0.00 | 0.00 | 91 | 1014.7 |
| 20260905054751 | 59 | 201 | 0.0 | 1.0 | 0.00 | 0.00 | 0.00 | 91 | 1014.9 |
| 20260905054735 | 59 | 200 | 0.0 | 1.0 | 0.00 | 0.00 | 0.00 | 91 | 1014.7 |
| 20260905054247 | 59 | 196 | 0.0 | 0.0 | 0.00 | 0.00 | 0.00 | 91 | 1014.8 |
| 20260905053926 | 59 | 196 | 0.0 | 0.0 | 0.00 | 0.00 | 0.00 | 91 | 1014.9 |
| 20260905053826 | 59 | 192 | 0.0 | 0.0 | 0.00 | 0.00 | 0.00 | 91 | 1014.9 |
| 20260905053727 | 60 | 179 | 0.0 | 0.0 | 0.00 | 0.00 | 0.00 | 90 | 1014.8 |
| 20260905053626 | 60 | 197 | 0.0 | 1.0 | 0.00 | 0.00 | 0.00 | 91 | 1014.9 |
| 20260905053526 | 60 | 189 | 0.0 | 1.0 | 0.00 | 0.00 | 0.00 | 91 | 1014.9 |
| 20260905053427 | 60 | 195 | 0.0 | 1.0 | 0.00 | 0.00 | 0.00 | 91 | 1014.7 |
| 20260905053326 | 60 | 179 | 0.0 | 1.0 | 0.00 | 0.00 | 0.00 | 91 | 1014.6 |
| 20260905053226 | 60 | 201 | 0.0 | 1.0 | 0.00 | 0.00 | 0.00 | 91 | 1014.7 |
| 20260905053126 | 59 | 200 | 0.0 | 1.0 | 0.00 | 0.00 | 0.00 | 91 | 1014.5 |
| 20260905053025 | 59 | 203 | 0.0 | 1.0 | 0.00 | 0.00 | 0.00 | 91 | 1014.5 |
| 20260905052926 | 59 | 199 | 0.0 | 1.0 | 0.00 | 0.00 | 0.00 | 92 | 1014.2 |
| 20260905052826 | 59 | 198 | 0.0 | 1.0 | 0.00 | 0.00 | 0.00 | 92 | 1014.3 |
| 20260905052727 | 59 | 206 | 0.0 | 1.0 | 0.00 | 0.00 | 0.00 | 92 | 1014.5 |
| 20260905052626 | 59 | 196 | 0.0 | 2.0 | 0.00 | 0.00 | 0.00 | 92 | 1014.5 |
| 20260905052526 | 59 | 200 | 0.0 | 2.0 | 0.00 | 0.00 | 0.00 | 92 | 1014.7 |
| 20260905052426 | 59 | 147 | 0.0 | 2.0 | 0.00 | 0.00 | 0.00 | 92 | 1014.3 |
| 20260905052326 | 59 | 185 | 0.0 | 2.0 | 0.00 | 0.00 | 0.00 | 92 | 1014.5 |
| 20260905052226 | 59 | 210 | 0.0 | 2.0 | 0.00 | 0.00 | 0.00 | 92 | 1014.6 |
| 20260905052133 | 59 | 199 | 0.0 | 2.0 | 0.00 | 0.00 | 0.00 | 92 | 1014.7 |
| 20260905052117 | 59 | 199 | 0.0 | 2.0 | 0.00 | 0.00 | 0.00 | 92 | 1014.5 |
| 20260905052102 | 59 | 210 | 0.0 | 2.0 | 0.00 | 0.00 | 0.00 | 92 | 1014.5 |
| 20260905052047 | 59 | 203 | 0.0 | 2.0 | 0.00 | 0.00 | 0.00 | 92 | 1014.5 |
| 20260905051818 | 59 | 220 | 0.0 | 2.0 | 0.00 | 0.00 | 0.00 | 92 | 1014.3 |
| 20260905051802 | 59 | 200 | 0.0 | 2.0 | 0.00 | 0.00 | 0.00 | 92 | 1014.6 |
| 20260905051747 | 59 | 192 | 0.0 | 2.0 | 0.00 | 0.00 | 0.00 | 92 | 1014.5 |
| 20260905051731 | 59 | 207 | 0.0 | 2.0 | 0.00 | 0.00 | 0.00 | 92 | 1014.6 |
| 20260905051715 | 59 | 199 | 0.0 | 2.0 | 0.00 | 0.00 | 0.00 | 92 | 1014.5 |
| 20260905051653 | 59 | 193 | 0.0 | 2.0 | 0.00 | 0.00 | 0.00 | 93 | 1014.3 |
| 20260905051637 | 59 | 192 | 0.0 | 2.0 | 0.00 | 0.00 | 0.00 | 93 | 1014.5 |
| 20260905051621 | 58 | 169 | 0.0 | 2.0 | 0.00 | 0.00 | 0.00 | 93 | 1014.5 |
| 20260905051605 | 58 | 192 | 0.0 | 2.0 | 0.00 | 0.00 | 0.00 | 93 | 1014.6 |
| 20260905051320 | 59 | 104 | 1.0 | 2.0 | 0.00 | 0.00 | 0.00 | 93 | 1014.3 |
| 20260905051044 | 59 | 279 | 1.0 | 2.0 | 0.00 | 0.00 | 0.00 | 93 | 1014.2 |
| 20260905051029 | 59 | 279 | 1.0 | 2.0 | 0.00 | 0.00 | 0.00 | 93 | 1014.5 |
| 20260905051013 | 59 | 196 | 0.0 | 2.0 | 0.00 | 0.00 | 0.00 | 93 | 1014.6 |
| 20260905050747 | 59 | 263 | 1.0 | 2.0 | 0.00 | 0.00 | 0.00 | 93 | 1014.7 |
| 20260905050511 | 59 | 197 | 0.0 | 2.0 | 0.00 | 0.00 | 0.00 | 93 | 1014.8 |
| 20260905050234 | 59 | 195 | 0.0 | 2.0 | 0.00 | 0.00 | 0.00 | 93 | 1014.5 |
| 20260905050005 | 59 | 143 | 1.0 | 1.0 | 0.00 | 0.00 | 0.00 | 93 | 1014.6 |
| 20260905045426 | 59 | 200 | 0.0 | 1.0 | 0.00 | 0.00 | 0.00 | 94 | 1014.5 |
| 20260905045327 | 59 | 198 | 0.0 | 1.0 | 0.00 | 0.00 | 0.00 | 94 | 1014.3 |
| 20260905045227 | 59 | 202 | 0.0 | 1.0 | 0.00 | 0.00 | 0.00 | 94 | 1014.5 |
| 20260905045128 | 59 | 189 | 0.0 | 1.0 | 0.00 | 0.00 | 0.00 | 94 | 1014.2 |
| 20260905045027 | 59 | 193 | 0.0 | 1.0 | 0.00 | 0.00 | 0.00 | 94 | 1014.6 |
| 20260905044928 | 59 | 198 | 0.0 | 1.0 | 0.00 | 0.00 | 0.00 | 94 | 1014.3 |
| 20260905044826 | 59 | 199 | 0.0 | 1.0 | 0.00 | 0.00 | 0.00 | 94 | 1014.1 |
| 20260905044727 | 59 | 169 | 0.0 | 1.0 | 0.00 | 0.00 | 0.00 | 94 | 1013.7 |
| 20260905044626 | 59 | 202 | 0.0 | 1.0 | 0.00 | 0.00 | 0.00 | 94 | 1013.9 |
| 20260905044527 | 59 | 188 | 0.0 | 0.0 | 0.00 | 0.00 | 0.00 | 94 | 1013.8 |
| 20260905044426 | 59 | 202 | 0.0 | 0.0 | 0.00 | 0.00 | 0.00 | 94 | 1013.7 |
| 20260905044410 | 59 | 196 | 0.0 | 1.0 | 0.00 | 0.00 | 0.00 | 94 | 1014.0 |
| 20260905044404 | 59 | 199 | 0.0 | 2.0 | 0.00 | 0.00 | 0.00 | 94 | 1014.0 |
| 20260905044358 | 59 | 200 | 0.0 | 0.0 | 0.00 | 0.00 | 0.00 | 94 | 1013.5 |
| 20260905044335 | 59 | 201 | 0.0 | 1.0 | 0.00 | 0.00 | 0.00 | 94 | 1013.9 |
| 20260905044320 | 59 | 212 | 0.0 | 1.0 | 0.00 | 0.00 | 0.00 | 94 | 1013.6 |
| 20260905044304 | 59 | 201 | 0.0 | 1.0 | 0.00 | 0.00 | 0.00 | 94 | 1013.8 |
| 20260905044248 | 60 | 197 | 0.0 | 1.0 | 0.00 | 0.00 | 0.00 | 94 | 1013.8 |
| 20260905044233 | 60 | 198 | 0.0 | 1.0 | 0.00 | 0.00 | 0.00 | 94 | 1014.0 |
| 20260905043745 | 59 | 197 | 0.0 | 1.0 | 0.00 | 0.00 | 0.00 | 94 | 1013.9 |
| 20260905043729 | 59 | 197 | 0.0 | 2.0 | 0.00 | 0.00 | 0.00 | 94 | 1014.1 |
| 20260905043713 | 59 | 201 | 0.0 | 2.0 | 0.00 | 0.00 | 0.00 | 94 | 1014.0 |
| 20260905043657 | 59 | 196 | 0.0 | 2.0 | 0.00 | 0.00 | 0.00 | 94 | 1014.0 |
| 20260905043126 | 59 | 199 | 0.0 | 2.0 | 0.00 | 0.00 | 0.00 | 94 | 1014.0 |
| 20260905043026 | 60 | 196 | 0.0 | 2.0 | 0.00 | 0.00 | 0.00 | 94 | 1014.0 |
| 20260905042926 | 60 | 199 | 0.0 | 2.0 | 0.00 | 0.00 | 0.00 | 94 | 1013.8 |
| 20260905042826 | 60 | 202 | 0.0 | 2.0 | 0.00 | 0.00 | 0.00 | 95 | 1013.9 |
| 20260905042726 | 60 | 199 | 0.0 | 2.0 | 0.00 | 0.00 | 0.00 | 94 | 1013.8 |
| 20260905042655 | 60 | 202 | 0.0 | 2.0 | 0.00 | 0.00 | 0.00 | 95 | 1013.8 |
| 20260905042651 | 60 | 197 | 0.0 | 1.0 | 0.00 | 0.00 | 0.00 | 96 | 1013.5 |
| 20260905042646 | 60 | 194 | 0.0 | 3.0 | 0.00 | 0.00 | 0.00 | 95 | 1013.5 |
| 20260905042641 | 60 | 196 | 0.0 | 2.0 | 0.00 | 0.00 | 0.00 | 95 | 1014.0 |
| 20260905042636 | 60 | 188 | 0.0 | 2.0 | 0.00 | 0.00 | 0.00 | 94 | 1013.8 |
| 20260905042620 | 60 | 196 | 0.0 | 1.0 | 0.00 | 0.00 | 0.00 | 94 | 1013.5 |
| 20260905042605 | 60 | 195 | 0.0 | 1.0 | 0.00 | 0.00 | 0.00 | 95 | 1013.7 |
| 20260905042341 | 60 | 152 | 0.0 | 1.0 | 0.00 | 0.00 | 0.00 | 94 | 1013.6 |
| 20260905042318 | 60 | 199 | 0.0 | 1.0 | 0.00 | 0.00 | 0.00 | 95 | 1013.8 |
| 20260905042301 | 60 | 195 | 0.0 | 1.0 | 0.00 | 0.00 | 0.00 | 95 | 1013.5 |
| 20260905042024 | 60 | 196 | 0.0 | 1.0 | 0.00 | 0.00 | 0.00 | 95 | 1013.9 |
| 20260905042008 | 60 | 203 | 0.0 | 1.0 | 0.00 | 0.00 | 0.00 | 95 | 1013.7 |
| 20260905041943 | 60 | 194 | 0.0 | 1.0 | 0.00 | 0.00 | 0.00 | 95 | 1013.6 |
| 20260905041927 | 60 | 197 | 0.0 | 1.0 | 0.00 | 0.00 | 0.00 | 95 | 1013.8 |
| 20260905041442 | 60 | 204 | 0.0 | 1.0 | 0.00 | 0.00 | 0.00 | 95 | 1013.5 |
| 20260905041427 | 60 | 199 | 0.0 | 1.0 | 0.00 | 0.00 | 0.00 | 95 | 1013.6 |
| 20260905041405 | 60 | 204 | 0.0 | 1.0 | 0.00 | 0.00 | 0.00 | 95 | 1013.6 |
| 20260905041349 | 60 | 196 | 0.0 | 1.0 | 0.00 | 0.00 | 0.00 | 95 | 1013.6 |
| 20260905041334 | 60 | 192 | 0.0 | 1.0 | 0.00 | 0.00 | 0.00 | 95 | 1013.8 |
| 20260905041317 | 60 | 199 | 0.0 | 1.0 | 0.00 | 0.00 | 0.00 | 95 | 1013.9 |
| 20260905041302 | 60 | 199 | 0.0 | 1.0 | 0.00 | 0.00 | 0.00 | 95 | 1013.8 |
| 20260905041242 | 60 | 196 | 0.0 | 2.0 | 0.00 | 0.00 | 0.00 | 95 | 1014.0 |
| 20260905041016 | 60 | 196 | 0.0 | 2.0 | 0.00 | 0.00 | 0.00 | 95 | 1013.7 |
| 20260905041000 | 60 | 203 | 0.0 | 2.0 | 0.00 | 0.00 | 0.00 | 95 | 1013.9 |
| 20260905040943 | 60 | 206 | 0.0 | 2.0 | 0.00 | 0.00 | 0.00 | 95 | 1013.7 |
| 20260905040928 | 60 | 201 | 0.0 | 2.0 | 0.00 | 0.00 | 0.00 | 95 | 1013.7 |
| 20260905040440 | 60 | 198 | 0.0 | 2.0 | 0.00 | 0.00 | 0.00 | 95 | 1013.7 |
| 20260905040203 | 60 | 194 | 0.0 | 2.0 | 0.00 | 0.00 | 0.00 | 95 | 1013.8 |
| 20260905040147 | 60 | 194 | 0.0 | 2.0 | 0.00 | 0.00 | 0.00 | 95 | 1014.0 |
| 20260905035919 | 60 | 202 | 0.0 | 1.0 | 0.00 | 0.00 | 0.00 | 95 | 1013.9 |
| 20260905035903 | 60 | 202 | 0.0 | 1.0 | 0.00 | 0.00 | 0.00 | 95 | 1013.9 |
| 20260905035627 | 60 | 200 | 0.0 | 1.0 | 0.00 | 0.00 | 0.00 | 95 | 1013.6 |
| 20260905035611 | 60 | 197 | 0.0 | 1.0 | 0.00 | 0.00 | 0.00 | 95 | 1013.6 |
| 20260905035554 | 60 | 197 | 0.0 | 1.0 | 0.00 | 0.00 | 0.00 | 96 | 1013.5 |
| 20260905035329 | 60 | 197 | 0.0 | 1.0 | 0.00 | 0.00 | 0.00 | 96 | 1013.6 |
| 20260905035313 | 60 | 196 | 0.0 | 1.0 | 0.00 | 0.00 | 0.00 | 95 | 1013.4 |
| 20260905034806 | 60 | 199 | 0.0 | 3.0 | 0.00 | 0.00 | 0.00 | 95 | 1013.5 |
| 20260905034750 | 60 | 281 | 0.0 | 3.0 | 0.00 | 0.00 | 0.00 | 95 | 1013.4 |
| 20260905034734 | 60 | 202 | 0.0 | 3.0 | 0.00 | 0.00 | 0.00 | 96 | 1013.1 |
| 20260905034509 | 60 | 195 | 0.0 | 3.0 | 0.00 | 0.00 | 0.00 | 95 | 1013.4 |
| 20260905034453 | 60 | 201 | 0.0 | 3.0 | 0.00 | 0.00 | 0.00 | 95 | 1013.2 |
| 20260905034436 | 60 | 194 | 0.0 | 3.0 | 0.00 | 0.00 | 0.00 | 95 | 1013.5 |
| 20260905034126 | 60 | 201 | 0.0 | 3.0 | 0.00 | 0.00 | 0.00 | 95 | 1013.2 |
| 20260905034026 | 60 | 204 | 0.0 | 3.0 | 0.00 | 0.00 | 0.00 | 95 | 1013.1 |
| 20260905033927 | 60 | 198 | 0.0 | 3.0 | 0.00 | 0.00 | 0.00 | 95 | 1013.0 |
| 20260905033826 | 60 | 197 | 0.0 | 3.0 | 0.00 | 0.00 | 0.00 | 95 | 1013.3 |
| 20260905033726 | 60 | 202 | 0.0 | 4.0 | 0.00 | 0.00 | 0.00 | 95 | 1013.2 |
| 20260905033703 | 61 | 204 | 0.0 | 4.0 | 0.00 | 0.00 | 0.00 | 95 | 1013.4 |
| 20260905033647 | 61 | 192 | 0.0 | 4.0 | 0.00 | 0.00 | 0.00 | 95 | 1013.3 |
| 20260905033326 | 61 | 199 | 0.0 | 4.0 | 0.00 | 0.00 | 0.00 | 95 | 1013.1 |
| 20260905033225 | 61 | 200 | 0.0 | 4.0 | 0.00 | 0.00 | 0.00 | 95 | 1013.1 |
| 20260905033126 | 60 | 199 | 0.0 | 4.0 | 0.00 | 0.00 | 0.00 | 95 | 1013.0 |
| 20260905033026 | 60 | 200 | 0.0 | 4.0 | 0.00 | 0.00 | 0.00 | 95 | 1013.2 |
| 20260905033010 | 60 | 194 | 0.0 | 4.0 | 0.00 | 0.00 | 0.00 | 95 | 1013.2 |
| 20260905032954 | 60 | 228 | 1.0 | 4.0 | 0.00 | 0.00 | 0.00 | 95 | 1013.0 |
| 20260905032725 | 60 | 210 | 0.0 | 3.0 | 0.00 | 0.00 | 0.00 | 95 | 1013.1 |
| 20260905032626 | 60 | 206 | 0.0 | 3.0 | 0.00 | 0.00 | 0.00 | 95 | 1012.9 |
| 20260905032536 | 60 | 202 | 0.0 | 2.0 | 0.00 | 0.00 | 0.00 | 95 | 1012.9 |
| 20260905032530 | 60 | 204 | 0.0 | 3.0 | 0.00 | 0.00 | 0.00 | 95 | 1012.9 |
| 20260905032519 | 60 | 199 | 0.0 | 2.0 | 0.00 | 0.00 | 0.00 | 95 | 1012.4 |
| 20260905032515 | 61 | 198 | 0.0 | 1.0 | 0.00 | 0.00 | 0.00 | 94 | 1012.4 |
| 20260905032506 | 60 | 198 | 0.0 | 3.0 | 0.00 | 0.00 | 0.00 | 95 | 1012.7 |
| 20260905032450 | 60 | 203 | 0.0 | 3.0 | 0.00 | 0.00 | 0.00 | 95 | 1012.9 |
| 20260905032427 | 60 | 233 | 0.0 | 3.0 | 0.00 | 0.00 | 0.00 | 95 | 1013.2 |
| 20260905032411 | 60 | 211 | 1.0 | 3.0 | 0.00 | 0.00 | 0.00 | 95 | 1013.1 |
| 20260905032355 | 60 | 184 | 0.0 | 3.0 | 0.00 | 0.00 | 0.00 | 95 | 1013.1 |
| 20260905032339 | 60 | 212 | 0.0 | 2.0 | 0.00 | 0.00 | 0.00 | 95 | 1013.0 |
| 20260905032323 | 60 | 212 | 0.0 | 2.0 | 0.00 | 0.00 | 0.00 | 95 | 1012.9 |